Wetterdaten: Mittwoch, 29.12.2021
Datum Zeit Temp. Aussen Temp. o. S. Temp +5cm Feuchte Auss Luftdruck Regen Sonnenschein Regendauer Solar Windben Empfang
29.12.2021 00:00 8,7 C 7,8 C 7,2 C 99 % 999,3 hPa 0,0 l/m 0 min 0 min 0 W/m 22,5 km/h (4 Bft) 97,87 %
29.12.2021 00:02 8,7 C 7,8 C 7,2 C 99 % 999,3 hPa 0,0 l/m 0 min 0 min 0 W/m 19,3 km/h (3 Bft) 97,56 %
29.12.2021 00:04 8,7 C 7,8 C 7,2 C 99 % 999,4 hPa 0,0 l/m 0 min 0 min 0 W/m 16,1 km/h (3 Bft) 95,74 %
29.12.2021 00:08 8,7 C 7,8 C 7,2 C 99 % 999,5 hPa 0,0 l/m 0 min 0 min 0 W/m 22,5 km/h (4 Bft) 97,65 %
29.12.2021 00:10 8,7 C 7,8 C 7,2 C 99 % 999,6 hPa 0,0 l/m 0 min 0 min 0 W/m 29,0 km/h (5 Bft) 97,87 %
29.12.2021 00:12 8,7 C 7,8 C 7,2 C 99 % 999,6 hPa 0,0 l/m 0 min 0 min 0 W/m 19,3 km/h (3 Bft) 95,74 %
29.12.2021 00:14 8,7 C 7,8 C 7,2 C 99 % 999,6 hPa 0,0 l/m 0 min 0 min 0 W/m 25,7 km/h (4 Bft) 97,87 %
29.12.2021 00:16 8,7 C 7,8 C 7,2 C 99 % 999,6 hPa 0,0 l/m 0 min 0 min 0 W/m 12,9 km/h (3 Bft) 97,87 %
29.12.2021 00:18 8,7 C 7,8 C 7,2 C 99 % 999,6 hPa 0,0 l/m 0 min 2 min 0 W/m 16,1 km/h (3 Bft) 97,87 %
29.12.2021 00:20 8,7 C 7,8 C 7,2 C 99 % 999,6 hPa 0,0 l/m 0 min 0 min 0 W/m 16,1 km/h (3 Bft) 97,83 %
29.12.2021 00:22 8,7 C 7,8 C 7,2 C 99 % 999,7 hPa 0,0 l/m 0 min 0 min 0 W/m 16,1 km/h (3 Bft) 93,62 %
29.12.2021 00:24 8,7 C 7,8 C 7,2 C 99 % 999,8 hPa 0,0 l/m 0 min 0 min 0 W/m 29,0 km/h (5 Bft) 93,62 %
29.12.2021 00:26 8,7 C 7,8 C 7,2 C 99 % 999,8 hPa 0,0 l/m 0 min 0 min 0 W/m 19,3 km/h (3 Bft) 91,49 %
29.12.2021 00:28 8,7 C 7,8 C 7,2 C 99 % 999,7 hPa 0,0 l/m 0 min 2 min 0 W/m 16,1 km/h (3 Bft) 95,74 %
29.12.2021 00:30 8,7 C 7,8 C 7,2 C 99 % 999,9 hPa 0,0 l/m 0 min 0 min 0 W/m 16,1 km/h (3 Bft) 95,74 %
29.12.2021 00:32 8,7 C 7,8 C 7,2 C 99 % 999,8 hPa 0,0 l/m 0 min 2 min 0 W/m 19,3 km/h (3 Bft) 93,48 %
29.12.2021 00:34 8,7 C 7,8 C 7,2 C 99 % 999,8 hPa 0,0 l/m 0 min 2 min 0 W/m 19,3 km/h (3 Bft) 95,74 %
29.12.2021 00:36 8,7 C 7,8 C 7,2 C 99 % 999,9 hPa 0,0 l/m 0 min 0 min 0 W/m 16,1 km/h (3 Bft) 96,61 %
29.12.2021 00:38 8,7 C 7,8 C 7,2 C 99 % 1000,1 hPa 0,0 l/m 0 min 0 min 0 W/m 16,1 km/h (3 Bft) 97,87 %
29.12.2021 00:40 8,7 C 7,8 C 7,2 C 99 % 1000,1 hPa 0,0 l/m 0 min 0 min 0 W/m 16,1 km/h (3 Bft) 97,14 %
29.12.2021 00:42 8,7 C 7,8 C 7,2 C 99 % 1000,2 hPa 0,0 l/m 0 min 0 min 0 W/m 12,9 km/h (3 Bft) 95,74 %
29.12.2021 00:44 8,7 C 7,8 C 7,2 C 99 % 1000,1 hPa 0,0 l/m 0 min 0 min 0 W/m 22,5 km/h (4 Bft) 96,55 %
29.12.2021 00:46 8,7 C 7,8 C 7,2 C 99 % 1000,2 hPa 0,0 l/m 0 min 0 min 0 W/m 22,5 km/h (4 Bft) 95,74 %
29.12.2021 00:48 8,7 C 7,8 C 7,2 C 99 % 1000,3 hPa 0,0 l/m 0 min 0 min 0 W/m 19,3 km/h (3 Bft) 95,74 %
29.12.2021 00:50 8,7 C 7,8 C 7,2 C 99 % 1000,3 hPa 0,2 l/m 0 min 0 min 0 W/m 16,1 km/h (3 Bft) 93,62 %
29.12.2021 00:52 8,7 C 7,8 C 7,2 C 99 % 1000,3 hPa 0,0 l/m 0 min 0 min 0 W/m 12,9 km/h (3 Bft) 93,48 %
29.12.2021 00:54 8,7 C 7,8 C 7,2 C 99 % 1000,3 hPa 0,0 l/m 0 min 0 min 0 W/m 19,3 km/h (3 Bft) 93,62 %
29.12.2021 00:56 8,7 C 7,8 C 7,2 C 99 % 1000,3 hPa 0,0 l/m 0 min 0 min 0 W/m 16,1 km/h (3 Bft) 95,74 %
29.12.2021 00:58 8,7 C 7,8 C 7,2 C 99 % 1000,3 hPa 0,0 l/m 0 min 2 min 0 W/m 19,3 km/h (3 Bft) 95,74 %
29.12.2021 01:00 8,7 C 7,8 C 7,2 C 99 % 1000,3 hPa 0,0 l/m 0 min 0 min 0 W/m 22,5 km/h (4 Bft) 95,74 %
29.12.2021 01:02 8,7 C 7,8 C 7,2 C 99 % 1000,5 hPa 0,0 l/m 0 min 0 min 0 W/m 19,3 km/h (3 Bft) 95,74 %
29.12.2021 01:04 8,7 C 7,8 C 7,2 C 99 % 1000,4 hPa 0,0 l/m 0 min 2 min 0 W/m 19,3 km/h (3 Bft) 97,83 %
29.12.2021 01:06 8,7 C 7,8 C 7,2 C 99 % 1000,5 hPa 0,0 l/m 0 min 0 min 0 W/m 19,3 km/h (3 Bft) 95,74 %
29.12.2021 01:08 8,7 C 7,8 C 7,2 C 99 % 1000,4 hPa 0,0 l/m 0 min 0 min 0 W/m 16,1 km/h (3 Bft) 97,87 %
29.12.2021 01:10 8,7 C 7,8 C 7,2 C 99 % 1000,4 hPa 0,0 l/m 0 min 0 min 0 W/m 12,9 km/h (3 Bft) 97,87 %
29.12.2021 01:12 8,7 C 7,8 C 7,2 C 99 % 1000,6 hPa 0,0 l/m 0 min 0 min 0 W/m 16,1 km/h (3 Bft) 97,87 %
29.12.2021 01:14 8,7 C 7,8 C 7,2 C 99 % 1000,6 hPa 0,0 l/m 0 min 0 min 0 W/m 16,1 km/h (3 Bft) 97,87 %
29.12.2021 01:16 8,7 C 7,8 C 7,2 C 99 % 1000,6 hPa 0,0 l/m 0 min 0 min 0 W/m 12,9 km/h (3 Bft) 95,65 %
29.12.2021 01:18 8,7 C 7,8 C 7,2 C 99 % 1000,7 hPa 0,0 l/m 0 min 0 min 0 W/m 16,1 km/h (3 Bft) 97,87 %
29.12.2021 01:20 8,7 C 7,8 C 7,2 C 99 % 1000,7 hPa 0,0 l/m 0 min 0 min 0 W/m 19,3 km/h (3 Bft) 97,87 %
29.12.2021 01:22 8,7 C 7,8 C 7,2 C 99 % 1000,7 hPa 0,0 l/m 0 min 0 min 0 W/m 16,1 km/h (3 Bft) 100,00 %
29.12.2021 01:24 8,7 C 7,8 C 7,2 C 99 % 1000,8 hPa 0,0 l/m 0 min 0 min 0 W/m 19,3 km/h (3 Bft) 100,00 %
29.12.2021 01:26 8,7 C 7,8 C 7,2 C 99 % 1000,8 hPa 0,0 l/m 0 min 0 min 0 W/m 16,1 km/h (3 Bft) 100,00 %
29.12.2021 01:28 8,7 C 7,8 C 7,2 C 99 % 1000,8 hPa 0,0 l/m 0 min 0 min 0 W/m 12,9 km/h (3 Bft) 100,00 %
29.12.2021 01:30 8,7 C 7,8 C 7,2 C 99 % 1000,8 hPa 0,0 l/m 0 min 0 min 0 W/m 12,9 km/h (3 Bft) 100,00 %
29.12.2021 01:32 8,7 C 7,8 C 7,2 C 99 % 1000,9 hPa 0,0 l/m 0 min 0 min 0 W/m 12,9 km/h (3 Bft) 97,87 %
29.12.2021 01:34 8,7 C 7,8 C 7,2 C 99 % 1000,9 hPa 0,0 l/m 0 min 2 min 0 W/m 19,3 km/h (3 Bft) 100,00 %
29.12.2021 01:36 8,7 C 7,8 C 7,2 C 99 % 1001,0 hPa 0,0 l/m 0 min 2 min 0 W/m 25,7 km/h (4 Bft) 100,00 %
29.12.2021 01:38 8,7 C 7,8 C 7,2 C 99 % 1001,0 hPa 0,0 l/m 0 min 2 min 0 W/m 19,3 km/h (3 Bft) 100,00 %
29.12.2021 01:40 8,7 C 7,8 C 7,2 C 99 % 1001,1 hPa 0,0 l/m 0 min 0 min 0 W/m 22,5 km/h (4 Bft) 100,00 %
29.12.2021 01:42 8,7 C 7,8 C 7,2 C 99 % 1001,3 hPa 0,0 l/m 0 min 0 min 0 W/m 12,9 km/h (3 Bft) 97,87 %
29.12.2021 01:44 8,7 C 7,8 C 7,2 C 99 % 1001,4 hPa 0,0 l/m 0 min 0 min 0 W/m 12,9 km/h (3 Bft) 100,00 %
29.12.2021 01:46 8,7 C 7,8 C 7,2 C 99 % 1001,4 hPa 0,0 l/m 0 min 2 min 0 W/m 9,7 km/h (2 Bft) 97,87 %
29.12.2021 01:48 8,7 C 7,8 C 7,2 C 99 % 1001,5 hPa 0,0 l/m 0 min 0 min 0 W/m 16,1 km/h (3 Bft) 100,00 %
29.12.2021 01:50 8,7 C 7,8 C 7,2 C 99 % 1001,5 hPa 0,2 l/m 0 min 0 min 0 W/m 19,3 km/h (3 Bft) 100,00 %
29.12.2021 01:52 8,7 C 7,8 C 7,2 C 99 % 1001,6 hPa 0,0 l/m 0 min 0 min 0 W/m 16,1 km/h (3 Bft) 97,83 %
29.12.2021 01:54 8,7 C 7,8 C 7,2 C 99 % 1001,6 hPa 0,0 l/m 0 min 0 min 0 W/m 12,9 km/h (3 Bft) 100,00 %
29.12.2021 01:56 8,7 C 7,8 C 7,2 C 99 % 1001,8 hPa 0,0 l/m 0 min 0 min 0 W/m 25,7 km/h (4 Bft) 100,00 %
29.12.2021 01:58 8,7 C 7,8 C 7,2 C 99 % 1001,7 hPa 0,0 l/m 0 min 0 min 0 W/m 12,9 km/h (3 Bft) 100,00 %
29.12.2021 02:00 8,7 C 7,8 C 7,2 C 99 % 1001,8 hPa 0,0 l/m 0 min 0 min 0 W/m 16,1 km/h (3 Bft) 100,00 %
29.12.2021 02:02 8,7 C 7,8 C 7,2 C 99 % 1001,8 hPa 0,0 l/m 0 min 0 min 0 W/m 16,1 km/h (3 Bft) 100,00 %
29.12.2021 02:04 8,7 C 7,8 C 7,2 C 99 % 1001,8 hPa 0,0 l/m 0 min 0 min 0 W/m 19,3 km/h (3 Bft) 97,83 %
29.12.2021 02:06 8,7 C 7,8 C 7,2 C 99 % 1001,8 hPa 0,0 l/m 0 min 0 min 0 W/m 16,1 km/h (3 Bft) 100,00 %
29.12.2021 02:08 8,7 C 7,8 C 7,2 C 99 % 1002,0 hPa 0,0 l/m 0 min 0 min 0 W/m 19,3 km/h (3 Bft) 100,00 %
29.12.2021 02:10 8,7 C 7,8 C 7,2 C 99 % 1002,0 hPa 0,0 l/m 0 min 0 min 0 W/m 16,1 km/h (3 Bft) 100,00 %
29.12.2021 02:12 8,7 C 7,8 C 7,2 C 99 % 1001,9 hPa 0,0 l/m 0 min 0 min 0 W/m 22,5 km/h (4 Bft) 100,00 %
29.12.2021 02:14 8,7 C 7,8 C 7,2 C 99 % 1002,1 hPa 0,0 l/m 0 min 0 min 0 W/m 19,3 km/h (3 Bft) 100,00 %
29.12.2021 02:16 8,7 C 7,8 C 7,2 C 99 % 1002,1 hPa 0,0 l/m 0 min 0 min 0 W/m 16,1 km/h (3 Bft) 97,87 %
29.12.2021 02:18 8,7 C 7,8 C 7,2 C 99 % 1002,1 hPa 0,0 l/m 0 min 2 min 0 W/m 16,1 km/h (3 Bft) 100,00 %
29.12.2021 02:20 8,7 C 7,8 C 7,2 C 99 % 1002,1 hPa 0,0 l/m 0 min 0 min 0 W/m 16,1 km/h (3 Bft) 100,00 %
29.12.2021 02:22 8,7 C 7,8 C 7,2 C 99 % 1002,2 hPa 0,0 l/m 0 min 0 min 0 W/m 16,1 km/h (3 Bft) 97,87 %
29.12.2021 02:24 8,7 C 7,8 C 7,2 C 99 % 1002,1 hPa 0,0 l/m 0 min 0 min 0 W/m 19,3 km/h (3 Bft) 100,00 %
29.12.2021 02:26 8,7 C 7,8 C 7,2 C 99 % 1002,2 hPa 0,0 l/m 0 min 0 min 0 W/m 16,1 km/h (3 Bft) 100,00 %
29.12.2021 02:28 8,7 C 7,8 C 7,2 C 99 % 1002,2 hPa 0,0 l/m 0 min 0 min 0 W/m 12,9 km/h (3 Bft) 100,00 %
29.12.2021 02:30 8,7 C 7,8 C 7,2 C 99 % 1002,3 hPa 0,0 l/m 0 min 0 min 0 W/m 19,3 km/h (3 Bft) 100,00 %
29.12.2021 02:32 8,7 C 7,8 C 7,2 C 99 % 1002,4 hPa 0,0 l/m 0 min 0 min 0 W/m 12,9 km/h (3 Bft) 100,00 %
29.12.2021 02:34 8,7 C 7,8 C 7,2 C 99 % 1002,5 hPa 0,0 l/m 0 min 0 min 0 W/m 16,1 km/h (3 Bft) 100,00 %
29.12.2021 02:36 8,7 C 7,8 C 7,2 C 99 % 1002,4 hPa 0,0 l/m 0 min 2 min 0 W/m 16,1 km/h (3 Bft) 100,00 %
29.12.2021 02:38 8,7 C 7,8 C 7,2 C 99 % 1002,5 hPa 0,0 l/m 0 min 2 min 0 W/m 19,3 km/h (3 Bft) 95,65 %
29.12.2021 02:40 8,7 C 7,8 C 7,2 C 99 % 1002,6 hPa 0,2 l/m 0 min 2 min 0 W/m 16,1 km/h (3 Bft) 100,00 %
29.12.2021 02:42 8,7 C 7,8 C 7,2 C 99 % 1002,6 hPa 0,0 l/m 0 min 2 min 0 W/m 22,5 km/h (4 Bft) 97,87 %
29.12.2021 02:44 8,7 C 7,8 C 7,2 C 99 % 1002,7 hPa 0,0 l/m 0 min 2 min 0 W/m 12,9 km/h (3 Bft) 95,74 %
29.12.2021 02:46 8,7 C 7,8 C 7,2 C 99 % 1002,7 hPa 0,2 l/m 0 min 0 min 0 W/m 16,1 km/h (3 Bft) 95,74 %
29.12.2021 02:48 8,7 C 7,8 C 7,2 C 99 % 1002,8 hPa 0,0 l/m 0 min 2 min 0 W/m 12,9 km/h (3 Bft) 93,62 %
29.12.2021 02:50 8,7 C 7,8 C 7,2 C 99 % 1002,9 hPa 0,0 l/m 0 min 2 min 0 W/m 12,9 km/h (3 Bft) 95,65 %
29.12.2021 02:52 8,7 C 7,8 C 7,2 C 99 % 1002,8 hPa 0,2 l/m 0 min 2 min 0 W/m 12,9 km/h (3 Bft) 93,62 %
29.12.2021 02:54 8,6 C 7,8 C 7,2 C 99 % 1002,9 hPa 0,2 l/m 0 min 2 min 0 W/m 9,7 km/h (2 Bft) 95,74 %
29.12.2021 02:56 8,6 C 7,8 C 7,2 C 99 % 1002,9 hPa 0,0 l/m 0 min 2 min 0 W/m 12,9 km/h (3 Bft) 93,62 %
29.12.2021 02:58 8,6 C 7,8 C 7,2 C 99 % 1002,9 hPa 0,0 l/m 0 min 2 min 0 W/m 9,7 km/h (2 Bft) 93,62 %
29.12.2021 03:00 8,6 C 7,8 C 7,2 C 99 % 1003,1 hPa 0,2 l/m 0 min 2 min 0 W/m 12,9 km/h (3 Bft) 93,62 %
29.12.2021 03:02 8,6 C 7,8 C 7,2 C 99 % 1003,1 hPa 0,0 l/m 0 min 2 min 0 W/m 6,4 km/h (2 Bft) 95,65 %
29.12.2021 03:04 8,6 C 7,8 C 7,2 C 99 % 1003,2 hPa 0,0 l/m 0 min 2 min 0 W/m 12,9 km/h (3 Bft) 91,49 %
29.12.2021 03:06 8,6 C 7,8 C 7,2 C 99 % 1003,2 hPa 0,2 l/m 0 min 0 min 0 W/m 6,4 km/h (2 Bft) 93,62 %
29.12.2021 03:08 8,6 C 7,8 C 7,2 C 99 % 1003,3 hPa 0,0 l/m 0 min 0 min 0 W/m 9,7 km/h (2 Bft) 94,29 %
29.12.2021 03:10 8,6 C 7,8 C 7,2 C 99 % 1003,3 hPa 0,0 l/m 0 min 0 min 0 W/m 9,7 km/h (2 Bft) 93,62 %
29.12.2021 03:12 8,6 C 7,8 C 7,2 C 99 % 1003,3 hPa 0,0 l/m 0 min 0 min 0 W/m 6,4 km/h (2 Bft) 93,62 %
29.12.2021 03:14 8,6 C 7,8 C 7,2 C 99 % 1003,3 hPa 0,0 l/m 0 min 0 min 0 W/m 6,4 km/h (2 Bft) 93,62 %
29.12.2021 03:16 8,6 C 7,8 C 7,2 C 99 % 1003,3 hPa 0,0 l/m 0 min 0 min 0 W/m 16,1 km/h (3 Bft) 93,48 %
29.12.2021 03:18 8,6 C 7,8 C 7,2 C 99 % 1003,4 hPa 0,0 l/m 0 min 0 min 0 W/m 16,1 km/h (3 Bft) 91,49 %
29.12.2021 03:20 8,6 C 7,8 C 7,2 C 99 % 1003,4 hPa 0,0 l/m 0 min 2 min 0 W/m 16,1 km/h (3 Bft) 95,74 %
29.12.2021 03:22 8,6 C 7,8 C 7,2 C 99 % 1003,5 hPa 0,0 l/m 0 min 2 min 0 W/m 12,9 km/h (3 Bft) 95,74 %
29.12.2021 03:24 8,6 C 7,8 C 7,2 C 99 % 1003,4 hPa 0,0 l/m 0 min 0 min 0 W/m 12,9 km/h (3 Bft) 95,74 %
29.12.2021 03:26 8,6 C 7,8 C 7,2 C 100 % 1003,4 hPa 0,0 l/m 0 min 0 min 0 W/m 12,9 km/h (3 Bft) 95,74 %
29.12.2021 03:28 8,6 C 7,8 C 7,2 C 99 % 1003,4 hPa 0,0 l/m 0 min 0 min 0 W/m 12,9 km/h (3 Bft) 95,65 %
29.12.2021 03:30 8,6 C 7,8 C 7,2 C 100 % 1003,4 hPa 0,0 l/m 0 min 0 min 0 W/m 12,9 km/h (3 Bft) 95,74 %
29.12.2021 03:32 8,6 C 7,8 C 7,2 C 99 % 1003,4 hPa 0,0 l/m 0 min 0 min 0 W/m 12,9 km/h (3 Bft) 95,74 %
29.12.2021 03:34 8,6 C 7,8 C 7,2 C 99 % 1003,4 hPa 0,0 l/m 0 min 0 min 0 W/m 16,1 km/h (3 Bft) 97,87 %
29.12.2021 03:36 8,5 C 7,8 C 7,2 C 99 % 1003,6 hPa 0,0 l/m 0 min 0 min 0 W/m 16,1 km/h (3 Bft) 97,87 %
29.12.2021 03:38 8,5 C 7,8 C 7,2 C 99 % 1003,6 hPa 0,0 l/m 0 min 0 min 0 W/m 16,1 km/h (3 Bft) 97,87 %
29.12.2021 03:40 8,5 C 7,8 C 7,2 C 99 % 1003,6 hPa 0,0 l/m 0 min 0 min 0 W/m 6,4 km/h (2 Bft) 95,65 %
29.12.2021 03:42 8,5 C 7,8 C 7,2 C 99 % 1003,7 hPa 0,0 l/m 0 min 0 min 0 W/m 12,9 km/h (3 Bft) 95,74 %
29.12.2021 03:44 8,5 C 7,8 C 7,2 C 99 % 1003,7 hPa 0,0 l/m 0 min 0 min 0 W/m 16,1 km/h (3 Bft) 97,87 %
29.12.2021 03:46 8,5 C 7,8 C 7,2 C 99 % 1003,7 hPa 0,0 l/m 0 min 0 min 0 W/m 12,9 km/h (3 Bft) 97,87 %
29.12.2021 03:48 8,5 C 7,8 C 7,2 C 99 % 1003,7 hPa 0,0 l/m 0 min 0 min 0 W/m 16,1 km/h (3 Bft) 97,87 %
29.12.2021 03:50 8,5 C 7,8 C 7,2 C 99 % 1003,7 hPa 0,0 l/m 0 min 0 min 0 W/m 16,1 km/h (3 Bft) 97,87 %
29.12.2021 03:52 8,5 C 7,8 C 7,2 C 99 % 1003,8 hPa 0,0 l/m 0 min 0 min 0 W/m 16,1 km/h (3 Bft) 100,00 %
29.12.2021 03:54 8,5 C 7,8 C 7,2 C 99 % 1003,9 hPa 0,0 l/m 0 min 0 min 0 W/m 12,9 km/h (3 Bft) 100,00 %
29.12.2021 03:56 8,5 C 7,8 C 7,2 C 99 % 1003,9 hPa 0,0 l/m 0 min 0 min 0 W/m 16,1 km/h (3 Bft) 100,00 %
29.12.2021 03:58 8,5 C 7,8 C 7,2 C 99 % 1003,9 hPa 0,0 l/m 0 min 0 min 0 W/m 19,3 km/h (3 Bft) 100,00 %
29.12.2021 04:00 8,5 C 7,8 C 7,2 C 99 % 1003,9 hPa 0,0 l/m 0 min 0 min 0 W/m 6,4 km/h (2 Bft) 97,87 %
29.12.2021 04:02 8,5 C 7,8 C 7,2 C 99 % 1003,9 hPa 0,0 l/m 0 min 0 min 0 W/m 12,9 km/h (3 Bft) 100,00 %
29.12.2021 04:04 8,4 C 7,8 C 7,2 C 99 % 1003,9 hPa 0,0 l/m 0 min 0 min 0 W/m 12,9 km/h (3 Bft) 97,83 %
29.12.2021 04:06 8,4 C 7,8 C 7,2 C 99 % 1003,9 hPa 0,0 l/m 0 min 0 min 0 W/m 22,5 km/h (4 Bft) 100,00 %
29.12.2021 04:08 8,4 C 7,8 C 7,2 C 99 % 1003,9 hPa 0,0 l/m 0 min 0 min 0 W/m 12,9 km/h (3 Bft) 97,87 %
29.12.2021 04:10 8,4 C 7,8 C 7,2 C 99 % 1003,9 hPa 0,0 l/m 0 min 0 min 0 W/m 16,1 km/h (3 Bft) 100,00 %
29.12.2021 04:12 8,4 C 7,8 C 7,2 C 100 % 1003,9 hPa 0,0 l/m 0 min 0 min 0 W/m 12,9 km/h (3 Bft) 100,00 %
29.12.2021 04:14 8,4 C 7,8 C 7,2 C 100 % 1004,0 hPa 0,0 l/m 0 min 0 min 0 W/m 25,7 km/h (4 Bft) 100,00 %
29.12.2021 04:16 8,4 C 7,8 C 7,2 C 100 % 1003,9 hPa 0,0 l/m 0 min 0 min 0 W/m 12,9 km/h (3 Bft) 97,83 %
29.12.2021 04:18 8,4 C 7,8 C 7,2 C 100 % 1004,0 hPa 0,0 l/m 0 min 0 min 0 W/m 16,1 km/h (3 Bft) 100,00 %
29.12.2021 04:20 8,4 C 7,8 C 7,2 C 100 % 1004,0 hPa 0,0 l/m 0 min 0 min 0 W/m 12,9 km/h (3 Bft) 97,87 %
29.12.2021 04:22 8,4 C 7,8 C 7,2 C 100 % 1004,0 hPa 0,0 l/m 0 min 0 min 0 W/m 12,9 km/h (3 Bft) 100,00 %
29.12.2021 04:24 8,4 C 7,8 C 7,2 C 100 % 1004,0 hPa 0,0 l/m 0 min 0 min 0 W/m 16,1 km/h (3 Bft) 100,00 %
29.12.2021 04:26 8,4 C 7,8 C 7,2 C 100 % 1004,1 hPa 0,0 l/m 0 min 0 min 0 W/m 9,7 km/h (2 Bft) 100,00 %
29.12.2021 04:28 8,4 C 7,8 C 7,2 C 100 % 1004,1 hPa 0,0 l/m 0 min 0 min 0 W/m 12,9 km/h (3 Bft) 100,00 %
29.12.2021 04:30 8,4 C 7,8 C 7,2 C 100 % 1004,1 hPa 0,2 l/m 0 min 0 min 0 W/m 16,1 km/h (3 Bft) 100,00 %
29.12.2021 04:32 8,4 C 7,8 C 7,2 C 100 % 1004,1 hPa 0,0 l/m 0 min 0 min 0 W/m 16,1 km/h (3 Bft) 95,74 %
29.12.2021 04:34 8,4 C 7,8 C 7,2 C 100 % 1004,2 hPa 0,0 l/m 0 min 2 min 0 W/m 12,9 km/h (3 Bft) 100,00 %
29.12.2021 04:36 8,4 C 7,8 C 7,2 C 100 % 1004,2 hPa 0,0 l/m 0 min 2 min 0 W/m 16,1 km/h (3 Bft) 97,87 %
29.12.2021 04:38 8,4 C 7,8 C 7,2 C 100 % 1004,2 hPa 0,0 l/m 0 min 2 min 0 W/m 9,7 km/h (2 Bft) 100,00 %
29.12.2021 04:40 8,4 C 7,8 C 7,2 C 100 % 1004,3 hPa 0,0 l/m 0 min 0 min 0 W/m 12,9 km/h (3 Bft) 100,00 %
29.12.2021 04:42 8,4 C 7,8 C 7,2 C 100 % 1004,3 hPa 0,0 l/m 0 min 2 min 0 W/m 16,1 km/h (3 Bft) 97,87 %
29.12.2021 04:44 8,4 C 7,8 C 7,2 C 100 % 1004,4 hPa 0,2 l/m 0 min 2 min 0 W/m 12,9 km/h (3 Bft) 95,74 %
29.12.2021 04:46 8,4 C 7,8 C 7,2 C 100 % 1004,4 hPa 0,0 l/m 0 min 2 min 0 W/m 16,1 km/h (3 Bft) 97,87 %
29.12.2021 04:48 8,4 C 7,8 C 7,2 C 100 % 1004,5 hPa 0,0 l/m 0 min 2 min 0 W/m 12,9 km/h (3 Bft) 97,87 %
29.12.2021 04:50 8,4 C 7,8 C 7,2 C 100 % 1004,5 hPa 0,0 l/m 0 min 2 min 0 W/m 12,9 km/h (3 Bft) 97,87 %
29.12.2021 04:52 8,4 C 7,8 C 7,2 C 100 % 1004,5 hPa 0,0 l/m 0 min 0 min 0 W/m 9,7 km/h (2 Bft) 95,65 %
29.12.2021 04:54 8,4 C 7,8 C 7,2 C 100 % 1004,6 hPa 0,2 l/m 0 min 2 min 0 W/m 9,7 km/h (2 Bft) 97,87 %
29.12.2021 04:56 8,4 C 7,8 C 7,2 C 100 % 1004,6 hPa 0,0 l/m 0 min 0 min 0 W/m 6,4 km/h (2 Bft) 95,74 %
29.12.2021 04:58 8,4 C 7,8 C 7,2 C 100 % 1004,6 hPa 0,0 l/m 0 min 0 min 0 W/m 9,7 km/h (2 Bft) 97,87 %
29.12.2021 05:00 8,4 C 7,8 C 7,2 C 100 % 1004,7 hPa 0,0 l/m 0 min 0 min 0 W/m 9,7 km/h (2 Bft) 97,87 %
29.12.2021 05:02 8,4 C 7,8 C 7,2 C 100 % 1004,7 hPa 0,0 l/m 0 min 0 min 0 W/m 6,4 km/h (2 Bft) 95,65 %
29.12.2021 05:04 8,3 C 7,8 C 7,2 C 100 % 1004,7 hPa 0,0 l/m 0 min 0 min 0 W/m 16,1 km/h (3 Bft) 97,87 %
29.12.2021 05:06 8,3 C 7,8 C 7,2 C 100 % 1004,7 hPa 0,0 l/m 0 min 0 min 0 W/m 9,7 km/h (2 Bft) 95,74 %
29.12.2021 05:08 8,3 C 7,8 C 7,2 C 100 % 1004,7 hPa 0,0 l/m 0 min 0 min 0 W/m 12,9 km/h (3 Bft) 97,87 %
29.12.2021 05:10 8,3 C 7,8 C 7,2 C 100 % 1004,7 hPa 0,0 l/m 0 min 0 min 0 W/m 9,7 km/h (2 Bft) 97,87 %
29.12.2021 05:12 8,3 C 7,8 C 7,2 C 100 % 1004,8 hPa 0,0 l/m 0 min 0 min 0 W/m 12,9 km/h (3 Bft) 97,87 %
29.12.2021 05:14 8,4 C 7,8 C 7,2 C 100 % 1004,9 hPa 0,0 l/m 0 min 0 min 0 W/m 12,9 km/h (3 Bft) 97,83 %
29.12.2021 05:16 8,3 C 7,8 C 7,2 C 100 % 1004,9 hPa 0,0 l/m 0 min 0 min 0 W/m 9,7 km/h (2 Bft) 100,00 %
29.12.2021 05:18 8,3 C 7,8 C 7,2 C 100 % 1004,9 hPa 0,0 l/m 0 min 0 min 0 W/m 12,9 km/h (3 Bft) 100,00 %
29.12.2021 05:20 8,3 C 7,8 C 7,2 C 100 % 1005,0 hPa 0,0 l/m 0 min 0 min 0 W/m 22,5 km/h (4 Bft) 97,87 %
29.12.2021 05:22 8,4 C 7,8 C 7,2 C 100 % 1004,9 hPa 0,0 l/m 0 min 0 min 0 W/m 22,5 km/h (4 Bft) 100,00 %
29.12.2021 05:24 8,3 C 7,8 C 7,2 C 100 % 1004,9 hPa 0,0 l/m 0 min 0 min 0 W/m 16,1 km/h (3 Bft) 100,00 %
29.12.2021 05:26 8,3 C 7,8 C 7,2 C 100 % 1004,9 hPa 0,0 l/m 0 min 0 min 0 W/m 16,1 km/h (3 Bft) 93,48 %
29.12.2021 05:28 8,3 C 7,8 C 7,2 C 100 % 1005,0 hPa 0,0 l/m 0 min 0 min 0 W/m 12,9 km/h (3 Bft) 100,00 %
29.12.2021 05:30 8,3 C 7,8 C 7,2 C 100 % 1005,0 hPa 0,0 l/m 0 min 0 min 0 W/m 9,7 km/h (2 Bft) 100,00 %
29.12.2021 05:32 8,3 C 7,8 C 7,2 C 100 % 1005,0 hPa 0,0 l/m 0 min 0 min 0 W/m 9,7 km/h (2 Bft) 100,00 %
29.12.2021 05:34 8,3 C 7,8 C 7,2 C 100 % 1005,0 hPa 0,0 l/m 0 min 0 min 0 W/m 16,1 km/h (3 Bft) 97,87 %
29.12.2021 05:36 8,3 C 7,8 C 7,2 C 100 % 1005,1 hPa 0,0 l/m 0 min 0 min 0 W/m 16,1 km/h (3 Bft) 97,87 %
29.12.2021 05:38 8,3 C 7,8 C 7,2 C 100 % 1005,2 hPa 0,0 l/m 0 min 0 min 0 W/m 16,1 km/h (3 Bft) 100,00 %
29.12.2021 05:40 8,3 C 7,8 C 7,2 C 100 % 1005,2 hPa 0,2 l/m 0 min 0 min 0 W/m 16,1 km/h (3 Bft) 97,87 %
29.12.2021 05:42 8,3 C 7,8 C 7,2 C 100 % 1005,2 hPa 0,0 l/m 0 min 0 min 0 W/m 12,9 km/h (3 Bft) 97,87 %
29.12.2021 05:44 8,3 C 7,8 C 7,2 C 100 % 1005,2 hPa 0,0 l/m 0 min 0 min 0 W/m 9,7 km/h (2 Bft) 95,74 %
29.12.2021 05:46 8,3 C 7,8 C 7,2 C 100 % 1005,2 hPa 0,0 l/m 0 min 0 min 0 W/m 9,7 km/h (2 Bft) 95,74 %
29.12.2021 05:48 8,3 C 7,8 C 7,2 C 100 % 1005,2 hPa 0,0 l/m 0 min 0 min 0 W/m 6,4 km/h (2 Bft) 95,74 %
29.12.2021 05:50 8,3 C 7,8 C 7,2 C 100 % 1005,3 hPa 0,0 l/m 0 min 0 min 0 W/m 19,3 km/h (3 Bft) 95,65 %
29.12.2021 05:52 8,3 C 7,8 C 7,2 C 100 % 1005,3 hPa 0,0 l/m 0 min 0 min 0 W/m 12,9 km/h (3 Bft) 95,74 %
29.12.2021 05:54 8,3 C 7,8 C 7,2 C 100 % 1005,3 hPa 0,0 l/m 0 min 0 min 0 W/m 12,9 km/h (3 Bft) 93,62 %
29.12.2021 05:56 8,3 C 7,8 C 7,2 C 100 % 1005,3 hPa 0,0 l/m 0 min 0 min 0 W/m 12,9 km/h (3 Bft) 95,74 %
29.12.2021 05:58 8,3 C 7,8 C 7,2 C 100 % 1005,4 hPa 0,0 l/m 0 min 0 min 0 W/m 9,7 km/h (2 Bft) 95,74 %
29.12.2021 06:00 8,3 C 7,8 C 7,2 C 100 % 1005,4 hPa 0,0 l/m 0 min 0 min 0 W/m 12,9 km/h (3 Bft) 95,74 %
29.12.2021 06:02 8,3 C 7,8 C 7,2 C 100 % 1005,4 hPa 0,0 l/m 0 min 0 min 0 W/m 6,4 km/h (2 Bft) 95,65 %
29.12.2021 06:04 8,3 C 7,8 C 7,2 C 100 % 1005,4 hPa 0,0 l/m 0 min 0 min 0 W/m 12,9 km/h (3 Bft) 91,49 %
29.12.2021 06:08 8,3 C 7,8 C 7,2 C 100 % 1005,6 hPa 0,0 l/m 0 min 0 min 0 W/m 12,9 km/h (3 Bft) 94,00 %
29.12.2021 06:10 8,3 C 7,8 C 7,2 C 99 % 1005,6 hPa 0,0 l/m 0 min 0 min 0 W/m 16,1 km/h (3 Bft) 95,74 %
29.12.2021 06:12 8,3 C 7,8 C 7,2 C 100 % 1005,6 hPa 0,0 l/m 0 min 0 min 0 W/m 12,9 km/h (3 Bft) 95,74 %
29.12.2021 06:14 8,3 C 7,8 C 7,2 C 100 % 1005,6 hPa 0,0 l/m 0 min 0 min 0 W/m 12,9 km/h (3 Bft) 95,74 %
29.12.2021 06:16 8,3 C 7,8 C 7,2 C 100 % 1005,7 hPa 0,0 l/m 0 min 0 min 0 W/m 12,9 km/h (3 Bft) 95,74 %
29.12.2021 06:18 8,3 C 7,8 C 7,2 C 100 % 1005,7 hPa 0,0 l/m 0 min 0 min 0 W/m 12,9 km/h (3 Bft) 95,74 %
29.12.2021 06:20 8,3 C 7,8 C 7,2 C 99 % 1005,7 hPa 0,0 l/m 0 min 0 min 0 W/m 16,1 km/h (3 Bft) 95,65 %
29.12.2021 06:22 8,3 C 7,8 C 7,2 C 99 % 1005,8 hPa 0,0 l/m 0 min 0 min 0 W/m 12,9 km/h (3 Bft) 93,62 %
29.12.2021 06:24 8,3 C 7,8 C 7,2 C 99 % 1005,8 hPa 0,0 l/m 0 min 0 min 0 W/m 3,2 km/h (1 Bft) 95,74 %
29.12.2021 06:26 8,3 C 7,8 C 7,2 C 99 % 1005,8 hPa 0,0 l/m 0 min 0 min 0 W/m 16,1 km/h (3 Bft) 95,74 %
29.12.2021 06:28 8,3 C 7,8 C 7,2 C 99 % 1005,8 hPa 0,0 l/m 0 min 0 min 0 W/m 12,9 km/h (3 Bft) 97,87 %
29.12.2021 06:30 8,3 C 7,8 C 7,2 C 99 % 1005,9 hPa 0,0 l/m 0 min 0 min 0 W/m 6,4 km/h (2 Bft) 95,74 %
29.12.2021 06:32 8,3 C 7,8 C 7,2 C 99 % 1005,9 hPa 0,0 l/m 0 min 0 min 0 W/m 12,9 km/h (3 Bft) 100,00 %
29.12.2021 06:34 8,3 C 7,8 C 7,2 C 99 % 1005,9 hPa 0,0 l/m 0 min 0 min 0 W/m 16,1 km/h (3 Bft) 97,87 %
29.12.2021 06:36 8,3 C 7,8 C 7,2 C 100 % 1006,0 hPa 0,0 l/m 0 min 0 min 0 W/m 6,4 km/h (2 Bft) 100,00 %
29.12.2021 06:38 8,3 C 7,8 C 7,2 C 100 % 1005,9 hPa 0,0 l/m 0 min 0 min 0 W/m 12,9 km/h (3 Bft) 97,87 %
29.12.2021 06:40 8,3 C 7,8 C 7,2 C 100 % 1006,0 hPa 0,0 l/m 0 min 0 min 0 W/m 6,4 km/h (2 Bft) 95,74 %
29.12.2021 06:42 8,3 C 7,8 C 7,2 C 100 % 1006,0 hPa 0,0 l/m 0 min 0 min 0 W/m 12,9 km/h (3 Bft) 97,87 %
29.12.2021 06:44 8,3 C 7,8 C 7,2 C 100 % 1005,9 hPa 0,0 l/m 0 min 0 min 0 W/m 12,9 km/h (3 Bft) 97,83 %
29.12.2021 06:46 8,2 C 7,8 C 7,2 C 100 % 1005,9 hPa 0,0 l/m 0 min 0 min 0 W/m 12,9 km/h (3 Bft) 95,74 %
29.12.2021 06:48 8,3 C 7,8 C 7,2 C 100 % 1005,9 hPa 0,0 l/m 0 min 0 min 0 W/m 12,9 km/h (3 Bft) 97,87 %
29.12.2021 06:50 8,2 C 7,8 C 7,2 C 100 % 1005,9 hPa 0,0 l/m 0 min 0 min 0 W/m 16,1 km/h (3 Bft) 95,74 %
29.12.2021 06:52 8,2 C 7,8 C 7,2 C 100 % 1006,0 hPa 0,0 l/m 0 min 2 min 0 W/m 6,4 km/h (2 Bft) 95,74 %
29.12.2021 06:54 8,2 C 7,2 C 7,2 C 100 % 1005,9 hPa 0,0 l/m 0 min 0 min 0 W/m 12,9 km/h (3 Bft) 97,87 %
29.12.2021 06:56 8,2 C 7,2 C 7,2 C 100 % 1005,9 hPa 0,0 l/m 0 min 2 min 0 W/m 6,4 km/h (2 Bft) 97,83 %
29.12.2021 06:58 8,2 C 7,2 C 7,2 C 100 % 1006,0 hPa 0,0 l/m 0 min 0 min 0 W/m 12,9 km/h (3 Bft) 97,87 %
29.12.2021 07:00 8,2 C 7,2 C 7,2 C 100 % 1006,0 hPa 0,0 l/m 0 min 2 min 0 W/m 12,9 km/h (3 Bft) 97,87 %
29.12.2021 07:02 8,2 C 7,2 C 7,2 C 100 % 1006,1 hPa 0,0 l/m 0 min 2 min 0 W/m 19,3 km/h (3 Bft) 97,87 %
29.12.2021 07:04 8,2 C 7,2 C 7,2 C 100 % 1006,1 hPa 0,0 l/m 0 min 2 min 0 W/m 12,9 km/h (3 Bft) 95,74 %
29.12.2021 07:06 8,2 C 7,2 C 7,2 C 100 % 1006,1 hPa 0,0 l/m 0 min 0 min 0 W/m 19,3 km/h (3 Bft) 97,87 %
29.12.2021 07:08 8,2 C 7,2 C 7,2 C 100 % 1006,1 hPa 0,0 l/m 0 min 0 min 0 W/m 9,7 km/h (2 Bft) 97,83 %
29.12.2021 07:10 8,2 C 7,2 C 7,2 C 100 % 1006,2 hPa 0,0 l/m 0 min 0 min 0 W/m 12,9 km/h (3 Bft) 97,87 %
29.12.2021 07:12 8,2 C 7,2 C 7,2 C 100 % 1006,2 hPa 0,0 l/m 0 min 0 min 0 W/m 12,9 km/h (3 Bft) 100,00 %
29.12.2021 07:14 8,2 C 7,2 C 7,2 C 100 % 1006,2 hPa 0,0 l/m 0 min 0 min 0 W/m 12,9 km/h (3 Bft) 100,00 %
29.12.2021 07:16 8,2 C 7,2 C 7,2 C 100 % 1006,1 hPa 0,0 l/m 0 min 0 min 0 W/m 12,9 km/h (3 Bft) 100,00 %
29.12.2021 07:18 8,2 C 7,2 C 7,2 C 99 % 1006,2 hPa 0,0 l/m 0 min 0 min 0 W/m 12,9 km/h (3 Bft) 100,00 %
29.12.2021 07:20 8,2 C 7,2 C 7,2 C 99 % 1006,2 hPa 0,0 l/m 0 min 0 min 0 W/m 16,1 km/h (3 Bft) 100,00 %
29.12.2021 07:22 8,2 C 7,8 C 7,2 C 100 % 1006,3 hPa 0,0 l/m 0 min 0 min 0 W/m 19,3 km/h (3 Bft) 100,00 %
29.12.2021 07:24 8,2 C 7,8 C 7,2 C 100 % 1006,2 hPa 0,0 l/m 0 min 0 min 0 W/m 12,9 km/h (3 Bft) 100,00 %
29.12.2021 07:26 8,2 C 7,2 C 7,2 C 99 % 1006,3 hPa 0,0 l/m 0 min 0 min 0 W/m 12,9 km/h (3 Bft) 97,87 %
29.12.2021 07:28 8,2 C 7,2 C 7,2 C 99 % 1006,3 hPa 0,0 l/m 0 min 0 min 0 W/m 6,4 km/h (2 Bft) 100,00 %
29.12.2021 07:30 8,2 C 7,8 C 7,2 C 99 % 1006,2 hPa 0,0 l/m 0 min 0 min 0 W/m 12,9 km/h (3 Bft) 100,00 %
29.12.2021 07:32 8,2 C 7,8 C 7,2 C 99 % 1006,3 hPa 0,0 l/m 0 min 0 min 0 W/m 12,9 km/h (3 Bft) 100,00 %
29.12.2021 07:34 8,2 C 7,8 C 7,2 C 99 % 1006,3 hPa 0,0 l/m 0 min 0 min 0 W/m 9,7 km/h (2 Bft) 100,00 %
29.12.2021 07:36 8,2 C 7,2 C 7,2 C 99 % 1006,3 hPa 0,0 l/m 0 min 0 min 0 W/m 6,4 km/h (2 Bft) 100,00 %
29.12.2021 07:38 8,2 C 7,2 C 7,2 C 99 % 1006,3 hPa 0,0 l/m 0 min 0 min 0 W/m 16,1 km/h (3 Bft) 100,00 %
29.12.2021 07:40 8,2 C 7,2 C 7,2 C 99 % 1006,4 hPa 0,0 l/m 0 min 0 min 0 W/m 19,3 km/h (3 Bft) 100,00 %
29.12.2021 07:42 8,2 C 7,2 C 7,2 C 99 % 1006,4 hPa 0,0 l/m 0 min 0 min 0 W/m 12,9 km/h (3 Bft) 100,00 %
29.12.2021 07:44 8,2 C 7,2 C 7,2 C 99 % 1006,4 hPa 0,0 l/m 0 min 0 min 0 W/m 16,1 km/h (3 Bft) 100,00 %
29.12.2021 07:46 8,2 C 7,2 C 7,2 C 99 % 1006,5 hPa 0,0 l/m 0 min 0 min 0 W/m 6,4 km/h (2 Bft) 100,00 %
29.12.2021 07:48 8,2 C 7,2 C 7,2 C 99 % 1006,5 hPa 0,0 l/m 0 min 0 min 0 W/m 6,4 km/h (2 Bft) 100,00 %
29.12.2021 07:50 8,2 C 7,2 C 7,2 C 99 % 1006,6 hPa 0,0 l/m 0 min 0 min 0 W/m 6,4 km/h (2 Bft) 97,87 %
29.12.2021 07:52 8,2 C 7,8 C 7,2 C 99 % 1006,6 hPa 0,0 l/m 0 min 0 min 0 W/m 12,9 km/h (3 Bft) 97,87 %
29.12.2021 07:54 8,2 C 7,2 C 7,2 C 99 % 1006,7 hPa 0,0 l/m 0 min 0 min 0 W/m 12,9 km/h (3 Bft) 100,00 %
29.12.2021 07:56 8,2 C 7,2 C 7,2 C 99 % 1006,7 hPa 0,0 l/m 0 min 0 min 0 W/m 6,4 km/h (2 Bft) 98,00 %
29.12.2021 07:58 8,2 C 7,2 C 7,2 C 99 % 1006,7 hPa 0,0 l/m 0 min 0 min 0 W/m 6,4 km/h (2 Bft) 100,00 %
29.12.2021 08:00 8,2 C 7,2 C 7,2 C 99 % 1006,7 hPa 0,0 l/m 0 min 0 min 0 W/m 16,1 km/h (3 Bft) 100,00 %
29.12.2021 08:02 8,2 C 7,2 C 7,2 C 99 % 1006,7 hPa 0,0 l/m 0 min 0 min 0 W/m 6,4 km/h (2 Bft) 97,87 %
29.12.2021 08:04 8,2 C 7,2 C 7,2 C 99 % 1006,8 hPa 0,0 l/m 0 min 0 min 0 W/m 6,4 km/h (2 Bft) 100,00 %
29.12.2021 08:06 8,2 C 7,2 C 7,2 C 99 % 1006,8 hPa 0,0 l/m 0 min 0 min 0 W/m 12,9 km/h (3 Bft) 100,00 %
29.12.2021 08:08 8,2 C 7,2 C 7,2 C 99 % 1006,8 hPa 0,0 l/m 0 min 0 min 0 W/m 6,4 km/h (2 Bft) 100,00 %
29.12.2021 08:10 8,2 C 7,2 C 7,2 C 99 % 1006,9 hPa 0,0 l/m 0 min 0 min 0 W/m 6,4 km/h (2 Bft) 100,00 %
29.12.2021 08:12 8,2 C 7,2 C 7,2 C 99 % 1006,9 hPa 0,0 l/m 0 min 0 min 0 W/m 3,2 km/h (1 Bft) 97,87 %
29.12.2021 08:14 8,2 C 7,2 C 7,2 C 99 % 1006,9 hPa 0,0 l/m 0 min 0 min 0 W/m 9,7 km/h (2 Bft) 100,00 %
29.12.2021 08:16 8,2 C 7,2 C 7,2 C 99 % 1006,9 hPa 0,0 l/m 0 min 0 min 0 W/m 6,4 km/h (2 Bft) 100,00 %
29.12.2021 08:18 8,2 C 7,2 C 7,2 C 99 % 1006,9 hPa 0,0 l/m 0 min 0 min 0 W/m 3,2 km/h (1 Bft) 100,00 %
29.12.2021 08:20 8,2 C 7,2 C 7,2 C 99 % 1006,9 hPa 0,0 l/m 0 min 0 min 0 W/m 3,2 km/h (1 Bft) 97,87 %
29.12.2021 08:22 8,2 C 7,2 C 7,2 C 99 % 1006,9 hPa 0,0 l/m 0 min 0 min 0 W/m 6,4 km/h (2 Bft) 97,87 %
29.12.2021 08:24 8,2 C 7,2 C 7,2 C 99 % 1007,0 hPa 0,0 l/m 0 min 0 min 0 W/m 6,4 km/h (2 Bft) 100,00 %
29.12.2021 08:26 8,2 C 7,2 C 7,2 C 99 % 1007,0 hPa 0,0 l/m 0 min 0 min 0 W/m 6,4 km/h (2 Bft) 93,62 %
29.12.2021 08:28 8,2 C 7,2 C 7,2 C 99 % 1007,0 hPa 0,0 l/m 0 min 0 min 0 W/m 3,2 km/h (1 Bft) 72,34 %
29.12.2021 08:30 8,2 C 7,2 C 7,2 C 99 % 1007,1 hPa 0,0 l/m 0 min 0 min 0 W/m 6,4 km/h (2 Bft) 73,68 %
29.12.2021 08:32 8,2 C 7,2 C 7,2 C 99 % 1007,1 hPa 0,0 l/m 0 min 0 min 0 W/m 12,9 km/h (3 Bft) 97,87 %
29.12.2021 08:34 8,2 C 7,2 C 7,2 C 99 % 1007,0 hPa 0,0 l/m 0 min 0 min 0 W/m 12,9 km/h (3 Bft) 93,62 %
29.12.2021 08:36 8,2 C 7,2 C 7,2 C 99 % 1007,0 hPa 0,0 l/m 0 min 0 min 0 W/m 3,2 km/h (1 Bft) 93,62 %
29.12.2021 08:38 8,2 C 7,2 C 7,2 C 99 % 1007,0 hPa 0,0 l/m 0 min 0 min 0 W/m 6,4 km/h (2 Bft) 93,62 %
29.12.2021 08:40 8,2 C 7,2 C 7,2 C 99 % 1007,1 hPa 0,0 l/m 0 min 0 min 0 W/m 3,2 km/h (1 Bft) 93,48 %
29.12.2021 08:42 8,1 C 7,2 C 7,2 C 99 % 1007,1 hPa 0,0 l/m 0 min 0 min 0 W/m 3,2 km/h (1 Bft) 93,62 %
29.12.2021 08:44 8,1 C 7,2 C 7,2 C 99 % 1007,1 hPa 0,0 l/m 0 min 0 min 0 W/m 12,9 km/h (3 Bft) 89,36 %
29.12.2021 08:46 8,1 C 7,2 C 7,2 C 99 % 1007,2 hPa 0,0 l/m 0 min 0 min 1 W/m 6,4 km/h (2 Bft) 95,12 %
29.12.2021 08:48 8,1 C 7,2 C 7,2 C 99 % 1007,2 hPa 0,0 l/m 0 min 0 min 5 W/m 3,2 km/h (1 Bft) 92,31 %
29.12.2021 08:50 8,1 C 7,2 C 7,2 C 99 % 1007,3 hPa 0,0 l/m 0 min 0 min 5 W/m 6,4 km/h (2 Bft) 91,49 %
29.12.2021 08:52 8,1 C 7,2 C 7,2 C 99 % 1007,3 hPa 0,0 l/m 0 min 0 min 7 W/m 6,4 km/h (2 Bft) 93,62 %
29.12.2021 08:54 8,1 C 7,2 C 7,2 C 99 % 1007,3 hPa 0,0 l/m 0 min 0 min 8 W/m 6,4 km/h (2 Bft) 93,48 %
29.12.2021 08:56 8,1 C 7,2 C 7,2 C 99 % 1007,3 hPa 0,0 l/m 0 min 0 min 9 W/m 9,7 km/h (2 Bft) 93,62 %
29.12.2021 08:58 8,1 C 7,2 C 7,2 C 99 % 1007,3 hPa 0,0 l/m 0 min 0 min 9 W/m 6,4 km/h (2 Bft) 93,62 %
29.12.2021 09:00 8,1 C 7,2 C 7,2 C 99 % 1007,3 hPa 0,0 l/m 0 min 0 min 7 W/m 12,9 km/h (3 Bft) 95,74 %
29.12.2021 09:02 8,1 C 7,2 C 7,2 C 99 % 1007,2 hPa 0,0 l/m 0 min 0 min 7 W/m 16,1 km/h (3 Bft) 91,49 %
29.12.2021 09:04 8,1 C 7,2 C 7,2 C 99 % 1007,3 hPa 0,0 l/m 0 min 0 min 7 W/m 12,9 km/h (3 Bft) 95,65 %
29.12.2021 09:06 8,1 C 7,2 C 7,2 C 99 % 1007,4 hPa 0,0 l/m 0 min 0 min 7 W/m 12,9 km/h (3 Bft) 95,74 %
29.12.2021 09:08 8,1 C 7,8 C 7,2 C 99 % 1007,5 hPa 0,0 l/m 0 min 0 min 9 W/m 9,7 km/h (2 Bft) 97,87 %
29.12.2021 09:10 8,1 C 7,8 C 7,2 C 99 % 1007,5 hPa 0,0 l/m 0 min 0 min 10 W/m 9,7 km/h (2 Bft) 97,87 %
29.12.2021 09:12 8,1 C 7,8 C 7,2 C 99 % 1007,5 hPa 0,0 l/m 0 min 0 min 11 W/m 9,7 km/h (2 Bft) 97,87 %
29.12.2021 09:14 8,1 C 7,8 C 7,2 C 99 % 1007,5 hPa 0,0 l/m 0 min 0 min 11 W/m 6,4 km/h (2 Bft) 97,87 %
29.12.2021 09:16 8,1 C 7,8 C 7,2 C 99 % 1007,6 hPa 0,0 l/m 0 min 0 min 11 W/m 9,7 km/h (2 Bft) 97,83 %
29.12.2021 09:18 8,1 C 7,8 C 7,2 C 99 % 1007,6 hPa 0,0 l/m 0 min 0 min 12 W/m 6,4 km/h (2 Bft) 95,74 %
29.12.2021 09:20 8,1 C 7,8 C 7,2 C 99 % 1007,6 hPa 0,0 l/m 0 min 0 min 12 W/m 6,4 km/h (2 Bft) 97,87 %
29.12.2021 09:22 8,1 C 7,8 C 7,2 C 99 % 1007,6 hPa 0,0 l/m 0 min 0 min 14 W/m 12,9 km/h (3 Bft) 97,87 %
29.12.2021 09:24 8,1 C 7,8 C 7,2 C 99 % 1007,6 hPa 0,0 l/m 0 min 0 min 15 W/m 12,9 km/h (3 Bft) 97,87 %
29.12.2021 09:26 8,1 C 7,8 C 7,2 C 99 % 1007,6 hPa 0,0 l/m 0 min 0 min 16 W/m 6,4 km/h (2 Bft) 100,00 %
29.12.2021 09:28 8,2 C 7,8 C 7,2 C 99 % 1007,6 hPa 0,0 l/m 0 min 0 min 17 W/m 12,9 km/h (3 Bft) 100,00 %
29.12.2021 09:30 8,2 C 7,8 C 7,2 C 99 % 1007,6 hPa 0,0 l/m 0 min 0 min 19 W/m 6,4 km/h (2 Bft) 97,87 %
29.12.2021 09:32 8,2 C 7,8 C 7,2 C 99 % 1007,6 hPa 0,0 l/m 0 min 0 min 21 W/m 6,4 km/h (2 Bft) 100,00 %
29.12.2021 09:34 8,2 C 7,8 C 7,2 C 99 % 1007,6 hPa 0,0 l/m 0 min 0 min 27 W/m 9,7 km/h (2 Bft) 100,00 %
29.12.2021 09:36 8,2 C 7,8 C 7,2 C 99 % 1007,5 hPa 0,0 l/m 0 min 0 min 32 W/m 6,4 km/h (2 Bft) 97,87 %
29.12.2021 09:38 8,2 C 7,8 C 7,2 C 99 % 1007,5 hPa 0,0 l/m 0 min 0 min 31 W/m 3,2 km/h (1 Bft) 97,87 %
29.12.2021 09:40 8,2 C 7,8 C 7,2 C 99 % 1007,6 hPa 0,0 l/m 0 min 0 min 30 W/m 12,9 km/h (3 Bft) 100,00 %
29.12.2021 09:42 8,2 C 7,8 C 7,2 C 99 % 1007,6 hPa 0,0 l/m 0 min 0 min 30 W/m 6,4 km/h (2 Bft) 100,00 %
29.12.2021 09:44 8,2 C 7,8 C 7,2 C 99 % 1007,6 hPa 0,0 l/m 0 min 0 min 33 W/m 6,4 km/h (2 Bft) 100,00 %
29.12.2021 09:46 8,2 C 7,8 C 7,2 C 99 % 1007,6 hPa 0,0 l/m 0 min 0 min 40 W/m 6,4 km/h (2 Bft) 100,00 %
29.12.2021 09:48 8,2 C 7,8 C 7,2 C 99 % 1007,6 hPa 0,0 l/m 0 min 0 min 40 W/m 3,2 km/h (1 Bft) 100,00 %
29.12.2021 09:50 8,2 C 7,8 C 7,2 C 99 % 1007,6 hPa 0,0 l/m 0 min 0 min 39 W/m 6,4 km/h (2 Bft) 97,87 %
29.12.2021 09:52 8,2 C 7,8 C 7,2 C 99 % 1007,6 hPa 0,0 l/m 0 min 0 min 35 W/m 12,9 km/h (3 Bft) 100,00 %
29.12.2021 09:54 8,2 C 7,8 C 7,2 C 99 % 1007,7 hPa 0,0 l/m 0 min 0 min 38 W/m 6,4 km/h (2 Bft) 100,00 %
29.12.2021 09:56 8,2 C 7,8 C 7,2 C 99 % 1007,7 hPa 0,0 l/m 0 min 0 min 37 W/m 9,7 km/h (2 Bft) 100,00 %
29.12.2021 09:58 8,2 C 7,8 C 7,2 C 99 % 1007,7 hPa 0,0 l/m 0 min 0 min 39 W/m 6,4 km/h (2 Bft) 97,87 %
29.12.2021 10:00 8,2 C 7,8 C 7,2 C 99 % 1007,6 hPa 0,0 l/m 0 min 0 min 42 W/m 6,4 km/h (2 Bft) 100,00 %
29.12.2021 10:02 8,2 C 7,8 C 7,2 C 99 % 1007,6 hPa 0,0 l/m 0 min 0 min 42 W/m 6,4 km/h (2 Bft) 97,87 %
29.12.2021 10:04 8,2 C 7,8 C 7,2 C 98 % 1007,6 hPa 0,0 l/m 0 min 0 min 44 W/m 6,4 km/h (2 Bft) 100,00 %
29.12.2021 10:06 8,2 C 7,8 C 7,2 C 98 % 1007,5 hPa 0,0 l/m 0 min 0 min 44 W/m 3,2 km/h (1 Bft) 100,00 %
29.12.2021 10:08 8,2 C 7,8 C 7,2 C 98 % 1007,6 hPa 0,0 l/m 0 min 0 min 47 W/m 6,4 km/h (2 Bft) 100,00 %
29.12.2021 10:10 8,2 C 7,8 C 7,2 C 98 % 1007,6 hPa 0,0 l/m 0 min 0 min 49 W/m 12,9 km/h (3 Bft) 100,00 %
29.12.2021 10:12 8,3 C 7,8 C 7,2 C 98 % 1007,6 hPa 0,0 l/m 0 min 0 min 50 W/m 9,7 km/h (2 Bft) 97,87 %
29.12.2021 10:14 8,3 C 7,8 C 7,2 C 98 % 1007,7 hPa 0,0 l/m 0 min 0 min 52 W/m 6,4 km/h (2 Bft) 100,00 %
29.12.2021 10:16 8,3 C 7,8 C 7,2 C 98 % 1007,7 hPa 0,0 l/m 0 min 0 min 59 W/m 9,7 km/h (2 Bft) 100,00 %
29.12.2021 10:18 8,3 C 7,8 C 7,2 C 98 % 1007,7 hPa 0,0 l/m 0 min 0 min 63 W/m 3,2 km/h (1 Bft) 100,00 %
29.12.2021 10:20 8,3 C 8,3 C 7,2 C 98 % 1007,8 hPa 0,0 l/m 0 min 0 min 70 W/m 6,4 km/h (2 Bft) 97,87 %
29.12.2021 10:22 8,3 C 8,3 C 7,2 C 98 % 1007,8 hPa 0,0 l/m 0 min 0 min 67 W/m 9,7 km/h (2 Bft) 100,00 %
29.12.2021 10:24 8,3 C 8,3 C 7,2 C 98 % 1007,8 hPa 0,0 l/m 0 min 0 min 62 W/m 9,7 km/h (2 Bft) 100,00 %
29.12.2021 10:26 8,3 C 8,3 C 7,2 C 98 % 1007,8 hPa 0,0 l/m 0 min 0 min 60 W/m 16,1 km/h (3 Bft) 97,87 %
29.12.2021 10:28 8,4 C 8,3 C 7,2 C 98 % 1007,8 hPa 0,0 l/m 0 min 0 min 68 W/m 9,7 km/h (2 Bft) 100,00 %
29.12.2021 10:30 8,4 C 8,3 C 7,2 C 98 % 1007,8 hPa 0,0 l/m 0 min 0 min 75 W/m 6,4 km/h (2 Bft) 95,74 %
29.12.2021 10:32 8,4 C 8,3 C 7,2 C 98 % 1007,8 hPa 0,0 l/m 0 min 0 min 80 W/m 6,4 km/h (2 Bft) 93,62 %
29.12.2021 10:34 8,4 C 8,3 C 7,2 C 98 % 1007,8 hPa 0,0 l/m 0 min 0 min 77 W/m 12,9 km/h (3 Bft) 97,87 %
29.12.2021 10:36 8,4 C 8,3 C 7,2 C 98 % 1007,9 hPa 0,0 l/m 0 min 0 min 78 W/m 12,9 km/h (3 Bft) 97,87 %
29.12.2021 10:38 8,4 C 8,3 C 7,2 C 98 % 1007,9 hPa 0,0 l/m 0 min 0 min 86 W/m 6,4 km/h (2 Bft) 95,65 %
29.12.2021 10:40 8,5 C 8,3 C 7,8 C 98 % 1007,9 hPa 0,0 l/m 0 min 0 min 95 W/m 9,7 km/h (2 Bft) 97,87 %
29.12.2021 10:42 8,5 C 8,3 C 7,8 C 98 % 1007,9 hPa 0,0 l/m 0 min 0 min 104 W/m 12,9 km/h (3 Bft) 97,87 %
29.12.2021 10:44 8,6 C 8,9 C 7,8 C 98 % 1007,9 hPa 0,0 l/m 0 min 0 min 110 W/m 12,9 km/h (3 Bft) 97,87 %
29.12.2021 10:46 8,6 C 8,9 C 7,8 C 98 % 1007,9 hPa 0,0 l/m 2 min 0 min 115 W/m 16,1 km/h (3 Bft) 97,87 %
29.12.2021 10:48 8,6 C 8,9 C 7,8 C 98 % 1008,0 hPa 0,0 l/m 0 min 0 min 114 W/m 12,9 km/h (3 Bft) 95,74 %
29.12.2021 10:50 8,6 C 8,9 C 7,8 C 98 % 1008,0 hPa 0,0 l/m 0 min 0 min 114 W/m 6,4 km/h (2 Bft) 97,87 %
29.12.2021 10:52 8,7 C 8,9 C 7,8 C 98 % 1008,0 hPa 0,0 l/m 0 min 0 min 114 W/m 6,4 km/h (2 Bft) 95,65 %
29.12.2021 10:54 8,7 C 8,9 C 7,8 C 98 % 1008,0 hPa 0,0 l/m 0 min 0 min 109 W/m 9,7 km/h (2 Bft) 95,74 %
29.12.2021 10:56 8,7 C 8,9 C 7,8 C 97 % 1007,9 hPa 0,0 l/m 0 min 0 min 101 W/m 12,9 km/h (3 Bft) 95,74 %
29.12.2021 10:58 8,7 C 8,9 C 7,8 C 97 % 1008,0 hPa 0,0 l/m 0 min 0 min 93 W/m 6,4 km/h (2 Bft) 91,49 %
29.12.2021 11:00 8,7 C 8,9 C 7,8 C 97 % 1008,0 hPa 0,0 l/m 0 min 0 min 88 W/m 6,4 km/h (2 Bft) 95,74 %
29.12.2021 11:02 8,8 C 8,9 C 7,8 C 97 % 1008,0 hPa 0,0 l/m 0 min 0 min 82 W/m 9,7 km/h (2 Bft) 95,65 %
29.12.2021 11:04 8,8 C 8,9 C 7,8 C 97 % 1007,9 hPa 0,0 l/m 0 min 0 min 85 W/m 16,1 km/h (3 Bft) 97,87 %
29.12.2021 11:06 8,8 C 8,9 C 7,8 C 97 % 1007,9 hPa 0,0 l/m 0 min 0 min 86 W/m 12,9 km/h (3 Bft) 95,74 %
29.12.2021 11:08 8,8 C 8,9 C 7,8 C 97 % 1007,8 hPa 0,0 l/m 0 min 0 min 82 W/m 12,9 km/h (3 Bft) 97,87 %
29.12.2021 11:10 8,8 C 8,9 C 7,8 C 97 % 1007,8 hPa 0,0 l/m 0 min 0 min 77 W/m 16,1 km/h (3 Bft) 97,87 %
29.12.2021 11:12 8,8 C 8,9 C 7,8 C 97 % 1007,8 hPa 0,0 l/m 0 min 0 min 73 W/m 12,9 km/h (3 Bft) 97,87 %
29.12.2021 11:14 8,8 C 8,9 C 7,8 C 96 % 1007,7 hPa 0,0 l/m 0 min 0 min 69 W/m 9,7 km/h (2 Bft) 97,83 %
29.12.2021 11:16 8,8 C 8,9 C 7,8 C 96 % 1007,7 hPa 0,0 l/m 0 min 0 min 68 W/m 9,7 km/h (2 Bft) 97,62 %
29.12.2021 11:18 8,8 C 8,9 C 7,8 C 96 % 1007,7 hPa 0,0 l/m 0 min 0 min 65 W/m 9,7 km/h (2 Bft) 97,87 %
29.12.2021 11:20 8,8 C 8,9 C 7,8 C 96 % 1007,7 hPa 0,0 l/m 0 min 0 min 66 W/m 12,9 km/h (3 Bft) 97,87 %
29.12.2021 11:22 8,9 C 8,9 C 7,8 C 96 % 1007,8 hPa 0,0 l/m 0 min 0 min 68 W/m 12,9 km/h (3 Bft) 95,74 %
29.12.2021 11:24 8,9 C 8,3 C 7,8 C 96 % 1007,8 hPa 0,0 l/m 0 min 0 min 65 W/m 16,1 km/h (3 Bft) 97,87 %
29.12.2021 11:26 8,9 C 8,3 C 7,8 C 96 % 1007,8 hPa 0,0 l/m 0 min 0 min 63 W/m 12,9 km/h (3 Bft) 95,74 %
29.12.2021 11:28 8,9 C 8,3 C 7,8 C 96 % 1007,7 hPa 0,0 l/m 0 min 0 min 61 W/m 12,9 km/h (3 Bft) 97,83 %
29.12.2021 11:30 8,9 C 8,3 C 7,8 C 96 % 1007,7 hPa 0,0 l/m 0 min 0 min 53 W/m 9,7 km/h (2 Bft) 95,74 %
29.12.2021 11:32 8,9 C 8,3 C 7,8 C 96 % 1007,6 hPa 0,0 l/m 0 min 0 min 49 W/m 16,1 km/h (3 Bft) 97,87 %
29.12.2021 11:34 8,9 C 8,3 C 7,8 C 96 % 1007,6 hPa 0,0 l/m 0 min 0 min 45 W/m 19,3 km/h (3 Bft) 93,62 %
29.12.2021 11:36 8,9 C 8,3 C 7,8 C 96 % 1007,6 hPa 0,0 l/m 0 min 0 min 45 W/m 16,1 km/h (3 Bft) 97,87 %
29.12.2021 11:38 8,9 C 8,3 C 7,8 C 96 % 1007,6 hPa 0,0 l/m 0 min 0 min 54 W/m 12,9 km/h (3 Bft) 95,74 %
29.12.2021 11:40 8,9 C 8,3 C 7,8 C 96 % 1007,6 hPa 0,0 l/m 0 min 0 min 79 W/m 6,4 km/h (2 Bft) 95,65 %
29.12.2021 11:42 9,0 C 8,9 C 7,8 C 96 % 1007,7 hPa 0,0 l/m 0 min 0 min 116 W/m 12,9 km/h (3 Bft) 97,87 %
29.12.2021 11:44 9,0 C 8,9 C 7,8 C 95 % 1007,6 hPa 0,0 l/m 0 min 0 min 141 W/m 12,9 km/h (3 Bft) 97,87 %
29.12.2021 11:46 9,1 C 9,4 C 7,8 C 95 % 1007,6 hPa 0,0 l/m 2 min 0 min 144 W/m 6,4 km/h (2 Bft) 97,87 %
29.12.2021 11:48 9,1 C 9,4 C 7,8 C 95 % 1007,6 hPa 0,0 l/m 2 min 0 min 169 W/m 6,4 km/h (2 Bft) 95,74 %
29.12.2021 11:50 9,2 C 9,4 C 7,8 C 95 % 1007,7 hPa 0,0 l/m 2 min 0 min 153 W/m 12,9 km/h (3 Bft) 97,87 %
29.12.2021 11:52 9,2 C 9,4 C 7,8 C 96 % 1007,7 hPa 0,0 l/m 0 min 0 min 142 W/m 19,3 km/h (3 Bft) 97,83 %
29.12.2021 11:54 9,2 C 9,4 C 7,8 C 95 % 1007,6 hPa 0,0 l/m 0 min 0 min 140 W/m 12,9 km/h (3 Bft) 95,74 %
29.12.2021 11:56 9,3 C 9,4 C 7,8 C 95 % 1007,6 hPa 0,0 l/m 0 min 0 min 135 W/m 12,9 km/h (3 Bft) 91,49 %
29.12.2021 11:58 9,3 C 9,4 C 7,8 C 95 % 1007,6 hPa 0,0 l/m 2 min 0 min 150 W/m 16,1 km/h (3 Bft) 97,87 %
29.12.2021 12:00 9,3 C 10,0 C 7,8 C 95 % 1007,5 hPa 0,0 l/m 2 min 0 min 190 W/m 12,9 km/h (3 Bft) 97,87 %
29.12.2021 12:02 9,4 C 10,0 C 7,8 C 95 % 1007,5 hPa 0,0 l/m 2 min 0 min 183 W/m 12,9 km/h (3 Bft) 93,62 %
29.12.2021 12:04 9,4 C 10,0 C 7,8 C 95 % 1007,6 hPa 0,0 l/m 2 min 0 min 189 W/m 12,9 km/h (3 Bft) 97,83 %
29.12.2021 12:08 9,5 C 10,0 C 7,8 C 95 % 1007,5 hPa 0,0 l/m 4 min 0 min 162 W/m 12,9 km/h (3 Bft) 97,87 %
29.12.2021 12:10 9,6 C 10,0 C 7,8 C 95 % 1007,5 hPa 0,0 l/m 0 min 0 min 140 W/m 25,7 km/h (4 Bft) 95,74 %
29.12.2021 12:12 9,6 C 10,0 C 7,8 C 95 % 1007,5 hPa 0,0 l/m 0 min 0 min 129 W/m 9,7 km/h (2 Bft) 95,74 %
29.12.2021 12:14 9,6 C 10,0 C 7,8 C 95 % 1007,5 hPa 0,0 l/m 0 min 0 min 131 W/m 9,7 km/h (2 Bft) 95,65 %
29.12.2021 12:16 9,6 C 10,0 C 7,8 C 94 % 1007,5 hPa 0,0 l/m 0 min 0 min 122 W/m 12,9 km/h (3 Bft) 100,00 %
29.12.2021 12:18 9,6 C 10,0 C 7,8 C 94 % 1007,4 hPa 0,0 l/m 0 min 0 min 113 W/m 6,4 km/h (2 Bft) 97,87 %
29.12.2021 12:20 9,6 C 9,4 C 7,8 C 94 % 1007,4 hPa 0,0 l/m 0 min 0 min 113 W/m 16,1 km/h (3 Bft) 95,74 %
29.12.2021 12:22 9,6 C 9,4 C 7,8 C 94 % 1007,5 hPa 0,0 l/m 0 min 0 min 116 W/m 16,1 km/h (3 Bft) 95,74 %
29.12.2021 12:24 9,6 C 9,4 C 7,8 C 94 % 1007,5 hPa 0,0 l/m 0 min 0 min 120 W/m 19,3 km/h (3 Bft) 100,00 %
29.12.2021 12:26 9,6 C 9,4 C 7,8 C 94 % 1007,5 hPa 0,0 l/m 0 min 0 min 126 W/m 9,7 km/h (2 Bft) 100,00 %
29.12.2021 12:28 9,6 C 9,4 C 7,8 C 94 % 1007,5 hPa 0,0 l/m 0 min 0 min 136 W/m 12,9 km/h (3 Bft) 100,00 %
29.12.2021 12:30 9,6 C 10,0 C 7,8 C 94 % 1007,6 hPa 0,0 l/m 0 min 0 min 140 W/m 12,9 km/h (3 Bft) 97,87 %
29.12.2021 12:32 9,6 C 10,0 C 7,8 C 94 % 1007,6 hPa 0,0 l/m 0 min 0 min 141 W/m 12,9 km/h (3 Bft) 97,87 %
29.12.2021 12:34 9,7 C 10,0 C 7,8 C 94 % 1007,7 hPa 0,0 l/m 0 min 0 min 135 W/m 12,9 km/h (3 Bft) 95,74 %
29.12.2021 12:36 9,7 C 10,0 C 7,8 C 94 % 1007,7 hPa 0,0 l/m 0 min 0 min 127 W/m 19,3 km/h (3 Bft) 97,87 %
29.12.2021 12:38 9,7 C 10,0 C 7,8 C 94 % 1007,7 hPa 0,0 l/m 0 min 0 min 128 W/m 16,1 km/h (3 Bft) 97,87 %
29.12.2021 12:40 9,7 C 10,0 C 7,8 C 94 % 1007,7 hPa 0,0 l/m 0 min 0 min 125 W/m 12,9 km/h (3 Bft) 97,83 %
29.12.2021 12:42 9,7 C 10,0 C 7,8 C 94 % 1007,7 hPa 0,0 l/m 0 min 0 min 120 W/m 9,7 km/h (2 Bft) 97,87 %
29.12.2021 12:44 9,7 C 10,0 C 7,8 C 94 % 1007,7 hPa 0,0 l/m 0 min 0 min 114 W/m 16,1 km/h (3 Bft) 97,87 %
29.12.2021 12:46 9,7 C 9,4 C 7,8 C 94 % 1007,6 hPa 0,0 l/m 0 min 0 min 112 W/m 16,1 km/h (3 Bft) 95,74 %
29.12.2021 12:48 9,7 C 9,4 C 7,8 C 93 % 1007,5 hPa 0,0 l/m 0 min 0 min 109 W/m 12,9 km/h (3 Bft) 97,87 %
29.12.2021 12:50 9,7 C 9,4 C 8,3 C 93 % 1007,4 hPa 0,0 l/m 0 min 0 min 104 W/m 16,1 km/h (3 Bft) 97,83 %
29.12.2021 12:52 9,7 C 9,4 C 8,3 C 93 % 1007,5 hPa 0,0 l/m 0 min 0 min 98 W/m 12,9 km/h (3 Bft) 95,74 %
29.12.2021 12:54 9,7 C 9,4 C 8,3 C 93 % 1007,5 hPa 0,0 l/m 0 min 0 min 95 W/m 12,9 km/h (3 Bft) 97,87 %
29.12.2021 12:56 9,7 C 9,4 C 8,3 C 93 % 1007,5 hPa 0,0 l/m 0 min 0 min 97 W/m 12,9 km/h (3 Bft) 97,87 %
29.12.2021 12:58 9,7 C 9,4 C 8,3 C 93 % 1007,5 hPa 0,0 l/m 0 min 0 min 100 W/m 12,9 km/h (3 Bft) 97,87 %
29.12.2021 13:00 9,7 C 9,4 C 8,3 C 93 % 1007,5 hPa 0,0 l/m 0 min 0 min 100 W/m 16,1 km/h (3 Bft) 97,87 %
29.12.2021 13:02 9,7 C 9,4 C 8,3 C 93 % 1007,5 hPa 0,0 l/m 0 min 0 min 102 W/m 16,1 km/h (3 Bft) 97,83 %
29.12.2021 13:04 9,7 C 9,4 C 8,3 C 93 % 1007,4 hPa 0,0 l/m 0 min 0 min 101 W/m 6,4 km/h (2 Bft) 95,74 %
29.12.2021 13:06 9,7 C 9,4 C 8,3 C 93 % 1007,4 hPa 0,0 l/m 0 min 0 min 97 W/m 3,2 km/h (1 Bft) 97,87 %
29.12.2021 13:08 9,8 C 9,4 C 8,3 C 93 % 1007,3 hPa 0,0 l/m 0 min 0 min 91 W/m 16,1 km/h (3 Bft) 97,87 %
29.12.2021 13:10 9,8 C 9,4 C 8,3 C 93 % 1007,3 hPa 0,0 l/m 0 min 0 min 84 W/m 12,9 km/h (3 Bft) 100,00 %
29.12.2021 13:12 9,8 C 9,4 C 8,3 C 93 % 1007,4 hPa 0,0 l/m 0 min 0 min 78 W/m 9,7 km/h (2 Bft) 100,00 %
29.12.2021 13:14 9,8 C 9,4 C 8,3 C 93 % 1007,3 hPa 0,0 l/m 0 min 0 min 73 W/m 16,1 km/h (3 Bft) 100,00 %
29.12.2021 13:16 9,7 C 9,4 C 8,3 C 93 % 1007,2 hPa 0,0 l/m 0 min 0 min 70 W/m 12,9 km/h (3 Bft) 100,00 %
29.12.2021 13:18 9,8 C 9,4 C 8,3 C 93 % 1007,3 hPa 0,0 l/m 0 min 0 min 69 W/m 3,2 km/h (1 Bft) 100,00 %
29.12.2021 13:20 9,8 C 9,4 C 8,3 C 93 % 1007,3 hPa 0,0 l/m 0 min 0 min 68 W/m 6,4 km/h (2 Bft) 98,11 %
29.12.2021 13:22 9,8 C 9,4 C 8,3 C 93 % 1007,4 hPa 0,0 l/m 0 min 0 min 60 W/m 9,7 km/h (2 Bft) 100,00 %
29.12.2021 13:24 9,8 C 9,4 C 8,3 C 93 % 1007,3 hPa 0,0 l/m 0 min 0 min 52 W/m 6,4 km/h (2 Bft) 97,87 %
29.12.2021 13:26 9,7 C 9,4 C 8,3 C 93 % 1007,3 hPa 0,0 l/m 0 min 0 min 44 W/m 12,9 km/h (3 Bft) 97,83 %
29.12.2021 13:28 9,7 C 9,4 C 8,3 C 93 % 1007,2 hPa 0,0 l/m 0 min 0 min 39 W/m 6,4 km/h (2 Bft) 100,00 %
29.12.2021 13:30 9,7 C 9,4 C 8,3 C 93 % 1007,2 hPa 0,0 l/m 0 min 0 min 39 W/m 12,9 km/h (3 Bft) 100,00 %
29.12.2021 13:32 9,7 C 9,4 C 8,3 C 93 % 1007,3 hPa 0,0 l/m 0 min 0 min 40 W/m 9,7 km/h (2 Bft) 100,00 %
29.12.2021 13:34 9,7 C 9,4 C 8,3 C 93 % 1007,3 hPa 0,0 l/m 0 min 0 min 41 W/m 6,4 km/h (2 Bft) 98,11 %
29.12.2021 13:36 9,7 C 9,4 C 8,3 C 93 % 1007,2 hPa 0,0 l/m 0 min 0 min 44 W/m 12,9 km/h (3 Bft) 100,00 %
29.12.2021 13:38 9,7 C 9,4 C 8,3 C 93 % 1007,3 hPa 0,0 l/m 0 min 0 min 44 W/m 9,7 km/h (2 Bft) 100,00 %
29.12.2021 13:40 9,7 C 8,9 C 8,3 C 93 % 1007,3 hPa 0,0 l/m 0 min 0 min 43 W/m 12,9 km/h (3 Bft) 100,00 %
29.12.2021 13:42 9,7 C 8,9 C 8,3 C 92 % 1007,4 hPa 0,0 l/m 0 min 0 min 40 W/m 9,7 km/h (2 Bft) 100,00 %
29.12.2021 13:44 9,7 C 8,9 C 7,8 C 92 % 1007,4 hPa 0,0 l/m 0 min 2 min 37 W/m 9,7 km/h (2 Bft) 95,74 %
29.12.2021 13:46 9,6 C 8,9 C 7,8 C 92 % 1007,3 hPa 0,0 l/m 0 min 2 min 36 W/m 9,7 km/h (2 Bft) 97,56 %
29.12.2021 13:48 9,7 C 8,9 C 7,8 C 93 % 1007,3 hPa 0,0 l/m 0 min 2 min 37 W/m 12,9 km/h (3 Bft) 96,23 %
29.12.2021 13:50 9,7 C 8,9 C 7,8 C 93 % 1007,3 hPa 0,0 l/m 0 min 2 min 36 W/m 9,7 km/h (2 Bft) 97,83 %
29.12.2021 13:52 9,6 C 8,9 C 7,8 C 93 % 1007,3 hPa 0,0 l/m 0 min 2 min 33 W/m 12,9 km/h (3 Bft) 97,87 %
29.12.2021 13:54 9,7 C 8,9 C 7,8 C 93 % 1007,3 hPa 0,0 l/m 0 min 0 min 34 W/m 9,7 km/h (2 Bft) 97,87 %
29.12.2021 13:56 9,7 C 8,9 C 7,8 C 93 % 1007,4 hPa 0,0 l/m 0 min 0 min 33 W/m 6,4 km/h (2 Bft) 97,87 %
29.12.2021 13:58 9,6 C 8,9 C 7,8 C 93 % 1007,4 hPa 0,0 l/m 0 min 0 min 32 W/m 9,7 km/h (2 Bft) 97,87 %
29.12.2021 14:00 9,6 C 8,9 C 7,8 C 93 % 1007,3 hPa 0,0 l/m 0 min 0 min 32 W/m 6,4 km/h (2 Bft) 97,87 %
29.12.2021 14:02 9,6 C 8,9 C 7,8 C 93 % 1007,3 hPa 0,0 l/m 0 min 0 min 33 W/m 12,9 km/h (3 Bft) 97,56 %
29.12.2021 14:04 9,6 C 8,9 C 7,8 C 93 % 1007,2 hPa 0,0 l/m 0 min 0 min 33 W/m 12,9 km/h (3 Bft) 98,08 %
29.12.2021 14:06 9,6 C 8,9 C 7,8 C 93 % 1007,1 hPa 0,0 l/m 0 min 2 min 34 W/m 6,4 km/h (2 Bft) 97,87 %
29.12.2021 14:08 9,6 C 8,9 C 7,8 C 93 % 1007,1 hPa 0,0 l/m 0 min 2 min 38 W/m 12,9 km/h (3 Bft) 97,87 %
29.12.2021 14:10 9,6 C 8,9 C 7,8 C 93 % 1007,0 hPa 0,0 l/m 0 min 2 min 40 W/m 6,4 km/h (2 Bft) 97,87 %
29.12.2021 14:12 9,6 C 8,9 C 7,8 C 93 % 1007,0 hPa 0,0 l/m 0 min 0 min 37 W/m 12,9 km/h (3 Bft) 95,74 %
29.12.2021 14:14 9,6 C 8,9 C 7,8 C 93 % 1007,0 hPa 0,0 l/m 0 min 0 min 30 W/m 6,4 km/h (2 Bft) 97,83 %
29.12.2021 14:16 9,6 C 8,9 C 7,8 C 93 % 1007,1 hPa 0,0 l/m 0 min 2 min 26 W/m 6,4 km/h (2 Bft) 97,56 %
29.12.2021 14:18 9,6 C 8,9 C 7,8 C 93 % 1007,1 hPa 0,0 l/m 0 min 2 min 28 W/m 6,4 km/h (2 Bft) 98,11 %
29.12.2021 14:20 9,6 C 8,9 C 7,8 C 93 % 1007,0 hPa 0,0 l/m 0 min 2 min 30 W/m 3,2 km/h (1 Bft) 95,74 %
29.12.2021 14:22 9,6 C 8,9 C 7,8 C 94 % 1006,9 hPa 0,0 l/m 0 min 2 min 30 W/m 6,4 km/h (2 Bft) 91,49 %
29.12.2021 14:24 9,6 C 8,9 C 7,8 C 94 % 1006,9 hPa 0,0 l/m 0 min 2 min 32 W/m 12,9 km/h (3 Bft) 95,74 %
29.12.2021 14:26 9,6 C 8,9 C 7,8 C 94 % 1006,9 hPa 0,0 l/m 0 min 0 min 34 W/m 6,4 km/h (2 Bft) 95,65 %
29.12.2021 14:28 9,6 C 8,9 C 7,8 C 94 % 1006,8 hPa 0,0 l/m 0 min 0 min 34 W/m 9,7 km/h (2 Bft) 95,74 %
29.12.2021 14:30 9,5 C 8,9 C 7,8 C 93 % 1006,8 hPa 0,0 l/m 0 min 0 min 32 W/m 12,9 km/h (3 Bft) 97,87 %
29.12.2021 14:32 9,5 C 8,9 C 7,8 C 94 % 1006,9 hPa 0,0 l/m 0 min 0 min 29 W/m 9,7 km/h (2 Bft) 97,56 %
29.12.2021 14:34 9,5 C 8,9 C 7,8 C 94 % 1007,0 hPa 0,0 l/m 0 min 0 min 25 W/m 12,9 km/h (3 Bft) 95,74 %
29.12.2021 14:36 9,4 C 8,9 C 7,8 C 94 % 1006,8 hPa 0,0 l/m 0 min 0 min 23 W/m 6,4 km/h (2 Bft) 95,74 %
29.12.2021 14:38 9,4 C 8,9 C 7,8 C 94 % 1006,8 hPa 0,0 l/m 0 min 0 min 21 W/m 6,4 km/h (2 Bft) 98,08 %
29.12.2021 14:40 9,4 C 8,9 C 7,8 C 94 % 1006,9 hPa 0,0 l/m 0 min 0 min 19 W/m 6,4 km/h (2 Bft) 95,74 %
29.12.2021 14:42 9,4 C 8,9 C 7,8 C 94 % 1006,9 hPa 0,0 l/m 0 min 0 min 18 W/m 6,4 km/h (2 Bft) 95,74 %
29.12.2021 14:44 9,4 C 8,9 C 7,8 C 94 % 1006,8 hPa 0,0 l/m 0 min 0 min 16 W/m 9,7 km/h (2 Bft) 95,74 %
29.12.2021 14:46 9,4 C 8,9 C 7,8 C 94 % 1006,7 hPa 0,0 l/m 0 min 0 min 18 W/m 12,9 km/h (3 Bft) 95,12 %
29.12.2021 14:48 9,4 C 8,9 C 7,8 C 94 % 1006,7 hPa 0,0 l/m 0 min 0 min 19 W/m 9,7 km/h (2 Bft) 95,74 %
29.12.2021 14:50 9,4 C 8,9 C 7,8 C 94 % 1006,7 hPa 0,0 l/m 0 min 0 min 17 W/m 12,9 km/h (3 Bft) 94,23 %
29.12.2021 14:52 9,4 C 8,9 C 7,8 C 94 % 1006,7 hPa 0,0 l/m 0 min 0 min 16 W/m 6,4 km/h (2 Bft) 93,62 %
29.12.2021 14:54 9,3 C 8,9 C 7,8 C 94 % 1006,7 hPa 0,0 l/m 0 min 0 min 16 W/m 12,9 km/h (3 Bft) 93,62 %
29.12.2021 14:56 9,3 C 8,9 C 7,8 C 94 % 1006,7 hPa 0,0 l/m 0 min 0 min 16 W/m 12,9 km/h (3 Bft) 95,74 %
29.12.2021 14:58 9,3 C 8,3 C 7,8 C 94 % 1006,7 hPa 0,0 l/m 0 min 0 min 14 W/m 6,4 km/h (2 Bft) 95,74 %
29.12.2021 15:00 9,3 C 8,3 C 7,8 C 94 % 1006,7 hPa 0,0 l/m 0 min 0 min 14 W/m 9,7 km/h (2 Bft) 95,74 %
29.12.2021 15:02 9,3 C 8,3 C 7,8 C 94 % 1006,8 hPa 0,0 l/m 0 min 0 min 14 W/m 6,4 km/h (2 Bft) 95,65 %
29.12.2021 15:04 9,3 C 8,3 C 7,8 C 94 % 1006,7 hPa 0,0 l/m 0 min 0 min 16 W/m 6,4 km/h (2 Bft) 95,74 %
29.12.2021 15:06 9,3 C 8,3 C 7,8 C 94 % 1006,6 hPa 0,0 l/m 0 min 0 min 16 W/m 12,9 km/h (3 Bft) 95,74 %
29.12.2021 15:08 9,3 C 8,3 C 7,8 C 94 % 1006,6 hPa 0,0 l/m 0 min 0 min 16 W/m 12,9 km/h (3 Bft) 91,49 %
29.12.2021 15:10 9,3 C 8,3 C 7,8 C 94 % 1006,6 hPa 0,0 l/m 0 min 0 min 13 W/m 12,9 km/h (3 Bft) 95,74 %
29.12.2021 15:12 9,2 C 8,3 C 7,8 C 94 % 1006,5 hPa 0,0 l/m 0 min 0 min 12 W/m 16,1 km/h (3 Bft) 95,74 %
29.12.2021 15:14 9,2 C 8,3 C 7,8 C 94 % 1006,4 hPa 0,0 l/m 0 min 0 min 12 W/m 12,9 km/h (3 Bft) 97,83 %
29.12.2021 15:16 9,2 C 8,3 C 7,8 C 94 % 1006,3 hPa 0,0 l/m 0 min 0 min 14 W/m 12,9 km/h (3 Bft) 100,00 %
29.12.2021 15:18 9,2 C 8,3 C 7,8 C 94 % 1006,4 hPa 0,0 l/m 0 min 0 min 14 W/m 6,4 km/h (2 Bft) 98,11 %
29.12.2021 15:20 9,2 C 8,3 C 7,8 C 94 % 1006,4 hPa 0,0 l/m 0 min 2 min 12 W/m 16,1 km/h (3 Bft) 97,87 %
29.12.2021 15:22 9,2 C 8,3 C 7,8 C 94 % 1006,5 hPa 0,0 l/m 0 min 2 min 11 W/m 16,1 km/h (3 Bft) 100,00 %
29.12.2021 15:24 9,2 C 8,3 C 7,2 C 94 % 1006,4 hPa 0,2 l/m 0 min 2 min 10 W/m 16,1 km/h (3 Bft) 100,00 %
29.12.2021 15:26 9,2 C 8,3 C 7,2 C 94 % 1006,4 hPa 0,0 l/m 0 min 2 min 9 W/m 19,3 km/h (3 Bft) 100,00 %
29.12.2021 15:28 9,2 C 8,3 C 7,2 C 94 % 1006,4 hPa 0,0 l/m 0 min 0 min 9 W/m 12,9 km/h (3 Bft) 97,87 %
29.12.2021 15:30 9,2 C 8,3 C 7,2 C 94 % 1006,4 hPa 0,0 l/m 0 min 0 min 9 W/m 6,4 km/h (2 Bft) 97,87 %
29.12.2021 15:32 9,1 C 8,3 C 7,2 C 95 % 1006,4 hPa 0,0 l/m 0 min 0 min 7 W/m 16,1 km/h (3 Bft) 97,56 %
29.12.2021 15:34 9,1 C 8,3 C 7,2 C 95 % 1006,3 hPa 0,0 l/m 0 min 0 min 7 W/m 19,3 km/h (3 Bft) 100,00 %
29.12.2021 15:36 9,1 C 8,3 C 7,2 C 95 % 1006,3 hPa 0,0 l/m 0 min 0 min 7 W/m 19,3 km/h (3 Bft) 97,87 %
29.12.2021 15:38 9,1 C 8,3 C 7,2 C 95 % 1006,4 hPa 0,0 l/m 0 min 0 min 6 W/m 19,3 km/h (3 Bft) 100,00 %
29.12.2021 15:40 9,1 C 8,3 C 7,2 C 95 % 1006,4 hPa 0,0 l/m 0 min 0 min 5 W/m 22,5 km/h (4 Bft) 100,00 %
29.12.2021 15:42 9,1 C 8,3 C 7,2 C 95 % 1006,3 hPa 0,0 l/m 0 min 0 min 5 W/m 19,3 km/h (3 Bft) 100,00 %
29.12.2021 15:44 9,0 C 8,3 C 7,2 C 95 % 1006,3 hPa 0,0 l/m 0 min 0 min 1 W/m 19,3 km/h (3 Bft) 100,00 %
29.12.2021 15:46 9,0 C 8,3 C 7,2 C 95 % 1006,2 hPa 0,0 l/m 0 min 2 min 0 W/m 16,1 km/h (3 Bft) 100,00 %
29.12.2021 15:48 9,0 C 8,3 C 7,2 C 95 % 1006,1 hPa 0,0 l/m 0 min 0 min 3 W/m 16,1 km/h (3 Bft) 98,08 %
29.12.2021 15:50 9,0 C 8,3 C 7,2 C 95 % 1006,2 hPa 0,0 l/m 0 min 2 min 3 W/m 12,9 km/h (3 Bft) 100,00 %
29.12.2021 15:52 8,9 C 8,3 C 7,2 C 95 % 1006,2 hPa 0,0 l/m 0 min 2 min 0 W/m 19,3 km/h (3 Bft) 100,00 %
29.12.2021 15:54 8,9 C 8,3 C 7,2 C 95 % 1006,2 hPa 0,0 l/m 0 min 2 min 0 W/m 19,3 km/h (3 Bft) 100,00 %
29.12.2021 15:56 8,9 C 8,3 C 7,2 C 95 % 1006,2 hPa 0,0 l/m 0 min 2 min 0 W/m 16,1 km/h (3 Bft) 100,00 %
29.12.2021 15:58 8,9 C 8,3 C 7,2 C 95 % 1006,2 hPa 0,2 l/m 0 min 2 min 0 W/m 19,3 km/h (3 Bft) 100,00 %
29.12.2021 16:00 8,9 C 7,8 C 7,2 C 95 % 1006,2 hPa 0,0 l/m 0 min 2 min 0 W/m 19,3 km/h (3 Bft) 100,00 %
29.12.2021 16:02 8,9 C 7,8 C 7,2 C 95 % 1006,2 hPa 0,2 l/m 0 min 2 min 0 W/m 19,3 km/h (3 Bft) 95,00 %
29.12.2021 16:04 8,9 C 7,8 C 7,2 C 95 % 1006,1 hPa 0,2 l/m 0 min 2 min 0 W/m 25,7 km/h (4 Bft) 100,00 %
29.12.2021 16:06 8,9 C 7,8 C 7,2 C 95 % 1006,0 hPa 0,0 l/m 0 min 2 min 0 W/m 16,1 km/h (3 Bft) 100,00 %
29.12.2021 16:08 8,9 C 7,8 C 7,2 C 95 % 1006,1 hPa 0,0 l/m 0 min 2 min 0 W/m 12,9 km/h (3 Bft) 100,00 %
29.12.2021 16:10 8,9 C 7,8 C 7,2 C 95 % 1006,0 hPa 0,0 l/m 0 min 2 min 0 W/m 12,9 km/h (3 Bft) 97,87 %
29.12.2021 16:12 8,8 C 7,8 C 7,2 C 95 % 1006,0 hPa 0,2 l/m 0 min 2 min 0 W/m 22,5 km/h (4 Bft) 100,00 %
29.12.2021 16:14 8,8 C 7,8 C 7,2 C 95 % 1005,9 hPa 0,0 l/m 0 min 2 min 0 W/m 22,5 km/h (4 Bft) 100,00 %
29.12.2021 16:16 8,8 C 7,8 C 7,2 C 95 % 1005,9 hPa 0,0 l/m 0 min 2 min 0 W/m 16,1 km/h (3 Bft) 97,56 %
29.12.2021 16:18 8,8 C 7,8 C 7,2 C 95 % 1005,9 hPa 0,0 l/m 0 min 2 min 0 W/m 19,3 km/h (3 Bft) 97,87 %
29.12.2021 16:20 8,8 C 7,8 C 7,2 C 96 % 1006,0 hPa 0,0 l/m 0 min 2 min 0 W/m 12,9 km/h (3 Bft) 98,11 %
29.12.2021 16:22 8,8 C 7,8 C 7,2 C 95 % 1006,0 hPa 0,2 l/m 0 min 2 min 0 W/m 19,3 km/h (3 Bft) 97,87 %
29.12.2021 16:24 8,8 C 7,8 C 7,2 C 96 % 1005,9 hPa 0,0 l/m 0 min 2 min 0 W/m 19,3 km/h (3 Bft) 97,83 %
29.12.2021 16:26 8,8 C 7,8 C 7,2 C 96 % 1005,9 hPa 0,0 l/m 0 min 2 min 0 W/m 19,3 km/h (3 Bft) 97,87 %
29.12.2021 16:28 8,8 C 7,8 C 7,2 C 96 % 1005,8 hPa 0,2 l/m 0 min 2 min 0 W/m 16,1 km/h (3 Bft) 93,62 %
29.12.2021 16:30 8,7 C 7,8 C 7,2 C 96 % 1005,9 hPa 0,0 l/m 0 min 2 min 0 W/m 12,9 km/h (3 Bft) 97,87 %
29.12.2021 16:32 8,8 C 7,8 C 7,2 C 96 % 1005,8 hPa 0,0 l/m 0 min 0 min 0 W/m 16,1 km/h (3 Bft) 97,56 %
29.12.2021 16:34 8,7 C 7,8 C 7,2 C 96 % 1005,8 hPa 0,2 l/m 0 min 0 min 0 W/m 12,9 km/h (3 Bft) 97,87 %
29.12.2021 16:36 8,7 C 7,8 C 7,2 C 96 % 1005,8 hPa 0,0 l/m 0 min 2 min 0 W/m 16,1 km/h (3 Bft) 94,23 %
29.12.2021 16:38 8,7 C 7,8 C 7,2 C 96 % 1005,8 hPa 0,0 l/m 0 min 2 min 0 W/m 16,1 km/h (3 Bft) 95,74 %
29.12.2021 16:40 8,7 C 7,8 C 7,2 C 96 % 1005,7 hPa 0,0 l/m 0 min 2 min 0 W/m 16,1 km/h (3 Bft) 95,74 %
29.12.2021 16:42 8,7 C 7,8 C 7,2 C 96 % 1005,8 hPa 0,0 l/m 0 min 0 min 0 W/m 16,1 km/h (3 Bft) 95,74 %
29.12.2021 16:44 8,7 C 7,8 C 7,2 C 96 % 1005,8 hPa 0,0 l/m 0 min 0 min 0 W/m 19,3 km/h (3 Bft) 95,74 %
29.12.2021 16:46 8,7 C 7,8 C 7,2 C 97 % 1005,8 hPa 0,0 l/m 0 min 0 min 0 W/m 22,5 km/h (4 Bft) 95,12 %
29.12.2021 16:48 8,7 C 7,8 C 7,2 C 97 % 1005,8 hPa 0,2 l/m 0 min 0 min 0 W/m 16,1 km/h (3 Bft) 96,15 %
29.12.2021 16:50 8,7 C 7,8 C 7,2 C 97 % 1005,8 hPa 0,0 l/m 0 min 0 min 0 W/m 19,3 km/h (3 Bft) 95,74 %
29.12.2021 16:52 8,7 C 7,8 C 7,2 C 97 % 1005,8 hPa 0,0 l/m 0 min 0 min 0 W/m 12,9 km/h (3 Bft) 95,74 %
29.12.2021 16:54 8,7 C 7,8 C 7,2 C 97 % 1005,9 hPa 0,0 l/m 0 min 0 min 0 W/m 16,1 km/h (3 Bft) 95,74 %
29.12.2021 16:56 8,7 C 7,8 C 7,2 C 97 % 1005,8 hPa 0,0 l/m 0 min 0 min 0 W/m 22,5 km/h (4 Bft) 95,74 %
29.12.2021 16:58 8,7 C 7,8 C 7,2 C 97 % 1005,8 hPa 0,2 l/m 0 min 0 min 0 W/m 16,1 km/h (3 Bft) 95,74 %
29.12.2021 17:00 8,7 C 7,8 C 7,2 C 97 % 1005,8 hPa 0,0 l/m 0 min 0 min 0 W/m 19,3 km/h (3 Bft) 97,83 %
29.12.2021 17:02 8,7 C 7,8 C 7,2 C 97 % 1005,8 hPa 0,0 l/m 0 min 2 min 0 W/m 12,9 km/h (3 Bft) 97,56 %
29.12.2021 17:04 8,7 C 7,8 C 7,2 C 97 % 1005,8 hPa 0,0 l/m 0 min 0 min 0 W/m 16,1 km/h (3 Bft) 98,11 %
29.12.2021 17:06 8,7 C 7,8 C 7,2 C 97 % 1005,8 hPa 0,2 l/m 0 min 2 min 0 W/m 12,9 km/h (3 Bft) 97,87 %
29.12.2021 17:08 8,7 C 7,8 C 7,2 C 97 % 1005,9 hPa 0,0 l/m 0 min 2 min 0 W/m 12,9 km/h (3 Bft) 95,74 %
29.12.2021 17:10 8,7 C 7,8 C 7,2 C 97 % 1005,9 hPa 0,2 l/m 0 min 2 min 0 W/m 16,1 km/h (3 Bft) 100,00 %
29.12.2021 17:12 8,7 C 7,8 C 7,2 C 97 % 1005,9 hPa 0,0 l/m 0 min 0 min 0 W/m 16,1 km/h (3 Bft) 97,83 %
29.12.2021 17:14 8,7 C 7,8 C 7,2 C 97 % 1005,9 hPa 0,0 l/m 0 min 0 min 0 W/m 12,9 km/h (3 Bft) 100,00 %
29.12.2021 17:16 8,8 C 7,8 C 7,2 C 97 % 1005,9 hPa 0,0 l/m 0 min 0 min 0 W/m 12,9 km/h (3 Bft) 100,00 %
29.12.2021 17:18 8,8 C 7,8 C 7,2 C 97 % 1005,9 hPa 0,2 l/m 0 min 0 min 0 W/m 12,9 km/h (3 Bft) 100,00 %
29.12.2021 17:20 8,8 C 7,8 C 7,2 C 97 % 1005,9 hPa 0,0 l/m 0 min 0 min 0 W/m 12,9 km/h (3 Bft) 100,00 %
29.12.2021 17:22 8,8 C 7,8 C 7,2 C 97 % 1005,9 hPa 0,0 l/m 0 min 2 min 0 W/m 12,9 km/h (3 Bft) 100,00 %
29.12.2021 17:24 8,8 C 7,8 C 7,2 C 98 % 1005,8 hPa 0,2 l/m 0 min 0 min 0 W/m 9,7 km/h (2 Bft) 97,83 %
29.12.2021 17:26 8,8 C 7,8 C 7,2 C 98 % 1005,8 hPa 0,0 l/m 0 min 0 min 0 W/m 16,1 km/h (3 Bft) 95,74 %
29.12.2021 17:28 8,8 C 7,8 C 7,2 C 98 % 1005,8 hPa 0,0 l/m 0 min 0 min 0 W/m 16,1 km/h (3 Bft) 97,87 %
29.12.2021 17:30 8,8 C 7,8 C 7,2 C 98 % 1005,8 hPa 0,0 l/m 0 min 0 min 0 W/m 19,3 km/h (3 Bft) 97,87 %
29.12.2021 17:32 8,8 C 7,8 C 7,2 C 98 % 1005,8 hPa 0,0 l/m 0 min 0 min 0 W/m 12,9 km/h (3 Bft) 97,56 %
29.12.2021 17:34 8,8 C 7,8 C 7,2 C 98 % 1005,8 hPa 0,0 l/m 0 min 2 min 0 W/m 19,3 km/h (3 Bft) 98,08 %
29.12.2021 17:36 8,8 C 7,8 C 7,2 C 98 % 1005,7 hPa 0,0 l/m 0 min 2 min 0 W/m 16,1 km/h (3 Bft) 97,87 %
29.12.2021 17:38 8,8 C 7,8 C 7,2 C 98 % 1005,7 hPa 0,2 l/m 0 min 2 min 0 W/m 22,5 km/h (4 Bft) 97,87 %
29.12.2021 17:40 8,8 C 7,8 C 7,2 C 98 % 1005,7 hPa 0,2 l/m 0 min 2 min 0 W/m 12,9 km/h (3 Bft) 97,87 %
29.12.2021 17:42 8,8 C 7,8 C 7,8 C 98 % 1005,7 hPa 0,2 l/m 0 min 2 min 0 W/m 12,9 km/h (3 Bft) 95,74 %
29.12.2021 17:44 8,8 C 7,8 C 7,8 C 98 % 1005,7 hPa 0,0 l/m 0 min 0 min 0 W/m 12,9 km/h (3 Bft) 95,74 %
29.12.2021 17:46 8,8 C 7,8 C 7,8 C 98 % 1005,6 hPa 0,0 l/m 0 min 0 min 0 W/m 12,9 km/h (3 Bft) 97,83 %
29.12.2021 17:48 8,9 C 7,8 C 7,8 C 98 % 1005,6 hPa 0,2 l/m 0 min 0 min 0 W/m 6,4 km/h (2 Bft) 97,87 %
29.12.2021 17:50 8,9 C 7,8 C 7,8 C 98 % 1005,6 hPa 0,0 l/m 0 min 0 min 0 W/m 19,3 km/h (3 Bft) 97,87 %
29.12.2021 17:52 8,9 C 7,8 C 7,8 C 98 % 1005,5 hPa 0,0 l/m 0 min 0 min 0 W/m 12,9 km/h (3 Bft) 93,62 %
29.12.2021 17:54 8,9 C 7,8 C 7,8 C 98 % 1005,6 hPa 0,0 l/m 0 min 0 min 0 W/m 9,7 km/h (2 Bft) 95,74 %
29.12.2021 17:56 8,9 C 7,8 C 7,8 C 98 % 1005,6 hPa 0,0 l/m 0 min 0 min 0 W/m 12,9 km/h (3 Bft) 97,87 %
29.12.2021 17:58 8,9 C 7,8 C 7,8 C 98 % 1005,6 hPa 0,0 l/m 0 min 0 min 0 W/m 16,1 km/h (3 Bft) 97,83 %
29.12.2021 18:00 8,9 C 8,3 C 7,8 C 98 % 1005,7 hPa 0,0 l/m 0 min 0 min 0 W/m 12,9 km/h (3 Bft) 97,87 %
29.12.2021 18:02 8,9 C 8,3 C 7,8 C 98 % 1005,7 hPa 0,0 l/m 0 min 0 min 0 W/m 12,9 km/h (3 Bft) 97,56 %
29.12.2021 18:04 9,0 C 8,3 C 7,8 C 98 % 1005,6 hPa 0,0 l/m 0 min 0 min 0 W/m 16,1 km/h (3 Bft) 94,34 %
29.12.2021 18:08 9,0 C 8,3 C 7,8 C 98 % 1005,6 hPa 0,0 l/m 0 min 0 min 0 W/m 19,3 km/h (3 Bft) 96,59 %
29.12.2021 18:10 9,1 C 8,3 C 7,8 C 98 % 1005,6 hPa 0,0 l/m 0 min 0 min 0 W/m 16,1 km/h (3 Bft) 97,87 %
29.12.2021 18:12 9,1 C 8,3 C 7,8 C 98 % 1005,6 hPa 0,0 l/m 0 min 0 min 0 W/m 12,9 km/h (3 Bft) 97,83 %
29.12.2021 18:14 9,1 C 8,3 C 7,8 C 98 % 1005,6 hPa 0,0 l/m 0 min 0 min 0 W/m 12,9 km/h (3 Bft) 97,87 %
29.12.2021 18:16 9,1 C 8,3 C 7,8 C 98 % 1005,6 hPa 0,0 l/m 0 min 0 min 0 W/m 6,4 km/h (2 Bft) 100,00 %
29.12.2021 18:18 9,1 C 8,3 C 7,8 C 99 % 1005,6 hPa 0,0 l/m 0 min 0 min 0 W/m 6,4 km/h (2 Bft) 98,11 %
29.12.2021 18:20 9,1 C 8,3 C 7,8 C 99 % 1005,6 hPa 0,2 l/m 0 min 0 min 0 W/m 12,9 km/h (3 Bft) 97,87 %
29.12.2021 18:22 9,1 C 8,3 C 7,8 C 99 % 1005,6 hPa 0,0 l/m 0 min 0 min 0 W/m 12,9 km/h (3 Bft) 100,00 %
29.12.2021 18:24 9,2 C 8,3 C 7,8 C 99 % 1005,6 hPa 0,0 l/m 0 min 0 min 0 W/m 16,1 km/h (3 Bft) 55,56 %
29.12.2021 18:26 9,2 C 8,3 C 7,8 C 99 % 1005,7 hPa 0,0 l/m 0 min 0 min 0 W/m 16,1 km/h (3 Bft) 100,00 %
29.12.2021 18:28 9,2 C 8,3 C 7,8 C 99 % 1005,8 hPa 0,0 l/m 0 min 0 min 0 W/m 9,7 km/h (2 Bft) 97,87 %
29.12.2021 18:30 9,2 C 8,3 C 7,8 C 99 % 1005,8 hPa 0,0 l/m 0 min 0 min 0 W/m 9,7 km/h (2 Bft) 95,74 %
29.12.2021 18:32 9,2 C 8,3 C 7,8 C 99 % 1005,9 hPa 0,0 l/m 0 min 0 min 0 W/m 16,1 km/h (3 Bft) 100,00 %
29.12.2021 18:34 9,3 C 8,3 C 7,8 C 99 % 1005,9 hPa 0,0 l/m 0 min 0 min 0 W/m 9,7 km/h (2 Bft) 100,00 %
29.12.2021 18:36 9,3 C 8,3 C 7,8 C 99 % 1006,0 hPa 0,0 l/m 0 min 0 min 0 W/m 6,4 km/h (2 Bft) 97,87 %
29.12.2021 18:38 9,3 C 8,3 C 8,3 C 99 % 1006,0 hPa 0,0 l/m 0 min 0 min 0 W/m 12,9 km/h (3 Bft) 95,74 %
29.12.2021 18:40 9,4 C 8,9 C 8,3 C 99 % 1005,9 hPa 0,0 l/m 0 min 0 min 0 W/m 12,9 km/h (3 Bft) 97,87 %
29.12.2021 18:42 9,4 C 8,9 C 8,3 C 99 % 1005,9 hPa 0,0 l/m 0 min 0 min 0 W/m 9,7 km/h (2 Bft) 97,87 %
29.12.2021 18:44 9,5 C 8,9 C 8,3 C 99 % 1005,9 hPa 0,2 l/m 0 min 0 min 0 W/m 9,7 km/h (2 Bft) 95,74 %
29.12.2021 18:46 9,5 C 8,9 C 8,3 C 99 % 1005,8 hPa 0,0 l/m 0 min 0 min 0 W/m 9,7 km/h (2 Bft) 97,56 %
29.12.2021 18:48 9,6 C 8,9 C 8,3 C 99 % 1005,8 hPa 0,0 l/m 0 min 0 min 0 W/m 12,9 km/h (3 Bft) 95,65 %
29.12.2021 18:50 9,6 C 8,9 C 8,3 C 99 % 1005,8 hPa 0,0 l/m 0 min 0 min 0 W/m 19,3 km/h (3 Bft) 97,87 %
29.12.2021 18:52 9,7 C 8,9 C 8,3 C 99 % 1005,9 hPa 0,2 l/m 0 min 0 min 0 W/m 19,3 km/h (3 Bft) 97,87 %
29.12.2021 18:54 9,8 C 9,4 C 8,3 C 99 % 1005,8 hPa 0,0 l/m 0 min 0 min 0 W/m 16,1 km/h (3 Bft) 95,74 %
29.12.2021 18:56 9,9 C 9,4 C 8,9 C 99 % 1005,8 hPa 0,0 l/m 0 min 0 min 0 W/m 16,1 km/h (3 Bft) 93,62 %
29.12.2021 18:58 9,9 C 9,4 C 8,9 C 99 % 1005,8 hPa 0,2 l/m 0 min 0 min 0 W/m 16,1 km/h (3 Bft) 94,23 %
29.12.2021 19:00 10,0 C 9,4 C 8,9 C 99 % 1005,9 hPa 0,0 l/m 0 min 0 min 0 W/m 9,7 km/h (2 Bft) 95,74 %
29.12.2021 19:02 10,1 C 9,4 C 8,9 C 99 % 1006,0 hPa 0,0 l/m 0 min 0 min 0 W/m 6,4 km/h (2 Bft) 92,68 %
29.12.2021 19:04 10,1 C 9,4 C 8,9 C 99 % 1006,0 hPa 0,0 l/m 0 min 0 min 0 W/m 22,5 km/h (4 Bft) 96,23 %
29.12.2021 19:06 10,2 C 9,4 C 8,9 C 99 % 1006,0 hPa 0,0 l/m 0 min 0 min 0 W/m 12,9 km/h (3 Bft) 91,49 %
29.12.2021 19:08 10,2 C 9,4 C 8,9 C 99 % 1005,9 hPa 0,0 l/m 0 min 0 min 0 W/m 12,9 km/h (3 Bft) 97,87 %
29.12.2021 19:10 10,3 C 9,4 C 8,9 C 100 % 1005,9 hPa 0,0 l/m 0 min 0 min 0 W/m 6,4 km/h (2 Bft) 97,83 %
29.12.2021 19:12 10,3 C 9,4 C 8,9 C 100 % 1005,8 hPa 0,0 l/m 0 min 0 min 0 W/m 12,9 km/h (3 Bft) 97,87 %
29.12.2021 19:14 10,4 C 9,4 C 8,9 C 100 % 1005,7 hPa 0,0 l/m 0 min 0 min 0 W/m 16,1 km/h (3 Bft) 95,74 %
29.12.2021 19:16 10,5 C 10,0 C 8,9 C 100 % 1005,8 hPa 0,0 l/m 0 min 0 min 0 W/m 25,7 km/h (4 Bft) 97,56 %
29.12.2021 19:20 10,6 C 10,0 C 9,4 C 100 % 1005,9 hPa 0,0 l/m 0 min 0 min 0 W/m 12,9 km/h (3 Bft) 96,67 %
29.12.2021 19:22 10,7 C 10,0 C 9,4 C 100 % 1005,9 hPa 0,0 l/m 0 min 0 min 0 W/m 12,9 km/h (3 Bft) 98,00 %
29.12.2021 19:24 10,8 C 10,0 C 9,4 C 100 % 1006,0 hPa 0,0 l/m 0 min 0 min 0 W/m 12,9 km/h (3 Bft) 97,87 %
29.12.2021 19:26 10,8 C 10,0 C 9,4 C 100 % 1006,1 hPa 0,0 l/m 0 min 0 min 0 W/m 12,9 km/h (3 Bft) 97,83 %
29.12.2021 19:28 10,9 C 10,0 C 9,4 C 100 % 1006,0 hPa 0,0 l/m 0 min 0 min 0 W/m 12,9 km/h (3 Bft) 97,87 %
29.12.2021 19:30 10,9 C 10,0 C 9,4 C 100 % 1006,1 hPa 0,0 l/m 0 min 0 min 0 W/m 6,4 km/h (2 Bft) 97,87 %
29.12.2021 19:32 10,9 C 10,0 C 9,4 C 100 % 1006,1 hPa 0,0 l/m 0 min 0 min 0 W/m 12,9 km/h (3 Bft) 97,87 %
29.12.2021 19:34 11,0 C 10,0 C 9,4 C 100 % 1006,2 hPa 0,0 l/m 0 min 0 min 0 W/m 22,5 km/h (4 Bft) 97,87 %
29.12.2021 19:36 11,1 C 10,0 C 9,4 C 100 % 1006,2 hPa 0,0 l/m 0 min 0 min 0 W/m 9,7 km/h (2 Bft) 97,87 %
29.12.2021 19:38 11,1 C 10,0 C 9,4 C 100 % 1006,3 hPa 0,0 l/m 0 min 0 min 0 W/m 16,1 km/h (3 Bft) 97,83 %
29.12.2021 19:40 11,1 C 10,6 C 9,4 C 100 % 1006,3 hPa 0,0 l/m 0 min 0 min 0 W/m 12,9 km/h (3 Bft) 100,00 %
29.12.2021 19:42 11,2 C 10,6 C 9,4 C 100 % 1006,2 hPa 0,0 l/m 0 min 0 min 0 W/m 16,1 km/h (3 Bft) 100,00 %
29.12.2021 19:44 11,2 C 10,6 C 9,4 C 100 % 1006,2 hPa 0,0 l/m 0 min 0 min 0 W/m 12,9 km/h (3 Bft) 100,00 %
29.12.2021 19:46 11,2 C 10,6 C 9,4 C 100 % 1006,2 hPa 0,0 l/m 0 min 0 min 0 W/m 16,1 km/h (3 Bft) 100,00 %
29.12.2021 19:48 11,3 C 10,6 C 10,0 C 100 % 1006,2 hPa 0,0 l/m 0 min 0 min 0 W/m 19,3 km/h (3 Bft) 100,00 %
29.12.2021 19:50 11,3 C 10,6 C 9,4 C 100 % 1006,1 hPa 0,0 l/m 0 min 0 min 0 W/m 12,9 km/h (3 Bft) 100,00 %
29.12.2021 19:52 11,3 C 10,6 C 10,0 C 100 % 1006,2 hPa 0,0 l/m 0 min 0 min 0 W/m 22,5 km/h (4 Bft) 100,00 %
29.12.2021 19:54 11,3 C 10,6 C 10,0 C 100 % 1006,2 hPa 0,0 l/m 0 min 0 min 0 W/m 16,1 km/h (3 Bft) 100,00 %
29.12.2021 19:56 11,4 C 10,6 C 10,0 C 100 % 1006,2 hPa 0,0 l/m 0 min 0 min 0 W/m 12,9 km/h (3 Bft) 100,00 %
29.12.2021 19:58 11,4 C 10,6 C 10,0 C 100 % 1006,2 hPa 0,0 l/m 0 min 0 min 0 W/m 12,9 km/h (3 Bft) 100,00 %
29.12.2021 20:00 11,4 C 10,6 C 10,0 C 100 % 1006,2 hPa 0,0 l/m 0 min 0 min 0 W/m 19,3 km/h (3 Bft) 100,00 %
29.12.2021 20:02 11,4 C 10,6 C 10,0 C 100 % 1006,3 hPa 0,0 l/m 0 min 0 min 0 W/m 16,1 km/h (3 Bft) 97,83 %
29.12.2021 20:04 11,4 C 10,6 C 10,0 C 100 % 1006,2 hPa 0,0 l/m 0 min 0 min 0 W/m 16,1 km/h (3 Bft) 100,00 %
29.12.2021 20:06 11,4 C 10,6 C 10,0 C 100 % 1006,2 hPa 0,0 l/m 0 min 0 min 0 W/m 19,3 km/h (3 Bft) 100,00 %
29.12.2021 20:08 11,5 C 10,6 C 10,0 C 100 % 1006,2 hPa 0,0 l/m 0 min 0 min 0 W/m 12,9 km/h (3 Bft) 97,96 %
29.12.2021 20:10 11,5 C 10,6 C 10,0 C 100 % 1006,4 hPa 0,0 l/m 0 min 0 min 0 W/m 12,9 km/h (3 Bft) 100,00 %
29.12.2021 20:12 11,5 C 10,6 C 10,0 C 100 % 1006,4 hPa 0,2 l/m 0 min 0 min 0 W/m 12,9 km/h (3 Bft) 97,87 %
29.12.2021 20:14 11,6 C 10,6 C 10,0 C 100 % 1006,4 hPa 0,0 l/m 0 min 0 min 0 W/m 16,1 km/h (3 Bft) 97,87 %
29.12.2021 20:16 11,6 C 10,6 C 10,0 C 100 % 1006,4 hPa 0,0 l/m 0 min 0 min 0 W/m 16,1 km/h (3 Bft) 97,87 %
29.12.2021 20:18 11,6 C 10,6 C 10,0 C 100 % 1006,5 hPa 0,0 l/m 0 min 0 min 0 W/m 22,5 km/h (4 Bft) 95,74 %
29.12.2021 20:20 11,6 C 10,6 C 10,0 C 100 % 1006,6 hPa 0,0 l/m 0 min 2 min 0 W/m 19,3 km/h (3 Bft) 97,83 %
29.12.2021 20:22 11,6 C 10,6 C 10,0 C 100 % 1006,6 hPa 0,0 l/m 0 min 2 min 0 W/m 16,1 km/h (3 Bft) 93,62 %
29.12.2021 20:24 11,7 C 10,6 C 10,0 C 100 % 1006,7 hPa 0,0 l/m 0 min 2 min 0 W/m 12,9 km/h (3 Bft) 97,87 %
29.12.2021 20:26 11,7 C 10,6 C 10,0 C 100 % 1006,7 hPa 0,0 l/m 0 min 0 min 0 W/m 12,9 km/h (3 Bft) 93,62 %
29.12.2021 20:28 11,7 C 10,6 C 10,0 C 100 % 1006,7 hPa 0,0 l/m 0 min 0 min 0 W/m 16,1 km/h (3 Bft) 97,87 %
29.12.2021 20:30 11,7 C 10,6 C 10,6 C 100 % 1006,8 hPa 0,0 l/m 0 min 0 min 0 W/m 9,7 km/h (2 Bft) 97,83 %
29.12.2021 20:32 11,7 C 10,6 C 10,0 C 100 % 1006,8 hPa 0,0 l/m 0 min 0 min 0 W/m 12,9 km/h (3 Bft) 95,74 %
29.12.2021 20:34 11,7 C 11,1 C 10,6 C 100 % 1006,8 hPa 0,0 l/m 0 min 0 min 0 W/m 16,1 km/h (3 Bft) 91,49 %
29.12.2021 20:36 11,7 C 11,1 C 10,6 C 100 % 1006,8 hPa 0,0 l/m 0 min 0 min 0 W/m 22,5 km/h (4 Bft) 93,62 %
29.12.2021 20:38 11,8 C 11,1 C 10,6 C 100 % 1006,8 hPa 0,0 l/m 0 min 0 min 0 W/m 12,9 km/h (3 Bft) 95,74 %
29.12.2021 20:40 11,8 C 11,1 C 10,6 C 100 % 1006,8 hPa 0,0 l/m 0 min 0 min 0 W/m 22,5 km/h (4 Bft) 95,74 %
29.12.2021 20:42 11,8 C 11,1 C 10,6 C 100 % 1006,9 hPa 0,0 l/m 0 min 0 min 0 W/m 16,1 km/h (3 Bft) 95,65 %
29.12.2021 20:44 11,9 C 11,1 C 10,6 C 100 % 1007,0 hPa 0,0 l/m 0 min 0 min 0 W/m 25,7 km/h (4 Bft) 95,74 %
29.12.2021 20:46 11,9 C 11,1 C 10,6 C 100 % 1007,1 hPa 0,0 l/m 0 min 0 min 0 W/m 12,9 km/h (3 Bft) 95,74 %
29.12.2021 20:48 11,9 C 11,1 C 10,6 C 100 % 1007,1 hPa 0,0 l/m 0 min 0 min 0 W/m 19,3 km/h (3 Bft) 95,74 %
29.12.2021 20:50 12,0 C 11,1 C 10,6 C 100 % 1007,2 hPa 0,0 l/m 0 min 0 min 0 W/m 19,3 km/h (3 Bft) 95,74 %
29.12.2021 20:52 12,0 C 11,1 C 10,6 C 100 % 1007,2 hPa 0,0 l/m 0 min 0 min 0 W/m 16,1 km/h (3 Bft) 91,49 %
29.12.2021 20:54 12,0 C 11,1 C 10,6 C 100 % 1007,2 hPa 0,0 l/m 0 min 0 min 0 W/m 12,9 km/h (3 Bft) 95,65 %
29.12.2021 20:56 12,0 C 11,1 C 10,6 C 100 % 1007,3 hPa 0,0 l/m 0 min 0 min 0 W/m 12,9 km/h (3 Bft) 95,74 %
29.12.2021 20:58 12,1 C 11,7 C 10,6 C 100 % 1007,3 hPa 0,0 l/m 0 min 0 min 0 W/m 16,1 km/h (3 Bft) 93,62 %
29.12.2021 21:00 12,1 C 11,7 C 10,6 C 100 % 1007,3 hPa 0,0 l/m 0 min 0 min 0 W/m 19,3 km/h (3 Bft) 95,74 %
29.12.2021 21:02 12,1 C 11,7 C 10,6 C 100 % 1007,3 hPa 0,0 l/m 0 min 0 min 0 W/m 19,3 km/h (3 Bft) 97,87 %
29.12.2021 21:04 12,1 C 11,7 C 10,6 C 100 % 1007,4 hPa 0,0 l/m 0 min 0 min 0 W/m 19,3 km/h (3 Bft) 97,92 %
29.12.2021 21:06 12,1 C 11,7 C 10,6 C 100 % 1007,4 hPa 0,0 l/m 0 min 0 min 0 W/m 9,7 km/h (2 Bft) 97,83 %
29.12.2021 21:08 12,1 C 11,7 C 10,6 C 100 % 1007,6 hPa 0,0 l/m 0 min 0 min 0 W/m 6,4 km/h (2 Bft) 100,00 %
29.12.2021 21:10 12,1 C 11,7 C 10,6 C 100 % 1007,6 hPa 0,0 l/m 0 min 0 min 0 W/m 12,9 km/h (3 Bft) 97,87 %
29.12.2021 21:12 12,1 C 11,7 C 10,6 C 100 % 1007,6 hPa 0,0 l/m 0 min 0 min 0 W/m 12,9 km/h (3 Bft) 97,87 %
29.12.2021 21:14 12,1 C 11,7 C 10,6 C 100 % 1007,7 hPa 0,0 l/m 0 min 0 min 0 W/m 16,1 km/h (3 Bft) 100,00 %
29.12.2021 21:16 12,2 C 11,7 C 10,6 C 100 % 1007,7 hPa 0,0 l/m 0 min 0 min 0 W/m 6,4 km/h (2 Bft) 100,00 %
29.12.2021 21:18 12,1 C 11,7 C 10,6 C 100 % 1007,7 hPa 0,0 l/m 0 min 0 min 0 W/m 16,1 km/h (3 Bft) 97,83 %
29.12.2021 21:20 12,1 C 11,7 C 10,6 C 100 % 1007,8 hPa 0,0 l/m 0 min 0 min 0 W/m 12,9 km/h (3 Bft) 100,00 %
29.12.2021 21:22 12,2 C 11,7 C 10,6 C 100 % 1007,8 hPa 0,0 l/m 0 min 0 min 0 W/m 9,7 km/h (2 Bft) 100,00 %
29.12.2021 21:24 12,2 C 11,7 C 10,6 C 100 % 1007,9 hPa 0,0 l/m 0 min 0 min 0 W/m 12,9 km/h (3 Bft) 97,87 %
29.12.2021 21:26 12,2 C 11,7 C 10,6 C 100 % 1008,0 hPa 0,0 l/m 0 min 0 min 0 W/m 12,9 km/h (3 Bft) 100,00 %
29.12.2021 21:28 12,2 C 11,7 C 10,6 C 100 % 1008,1 hPa 0,0 l/m 0 min 0 min 0 W/m 12,9 km/h (3 Bft) 100,00 %
29.12.2021 21:30 12,2 C 11,7 C 10,6 C 100 % 1008,0 hPa 0,0 l/m 0 min 0 min 0 W/m 12,9 km/h (3 Bft) 100,00 %
29.12.2021 21:32 12,2 C 11,7 C 10,6 C 100 % 1008,1 hPa 0,0 l/m 0 min 0 min 0 W/m 19,3 km/h (3 Bft) 97,87 %
29.12.2021 21:34 12,2 C 11,7 C 10,6 C 100 % 1008,2 hPa 0,0 l/m 0 min 0 min 0 W/m 12,9 km/h (3 Bft) 100,00 %
29.12.2021 21:36 12,2 C 11,7 C 10,6 C 100 % 1008,2 hPa 0,0 l/m 0 min 0 min 0 W/m 12,9 km/h (3 Bft) 100,00 %
29.12.2021 21:38 12,2 C 11,7 C 10,6 C 100 % 1008,2 hPa 0,0 l/m 0 min 0 min 0 W/m 16,1 km/h (3 Bft) 97,87 %
29.12.2021 21:40 12,2 C 11,7 C 10,6 C 100 % 1008,3 hPa 0,0 l/m 0 min 0 min 0 W/m 12,9 km/h (3 Bft) 95,74 %
29.12.2021 21:42 12,2 C 11,7 C 10,6 C 100 % 1008,4 hPa 0,0 l/m 0 min 0 min 0 W/m 12,9 km/h (3 Bft) 97,83 %
29.12.2021 21:44 12,2 C 11,7 C 10,6 C 100 % 1008,3 hPa 0,0 l/m 0 min 0 min 0 W/m 16,1 km/h (3 Bft) 97,87 %
29.12.2021 21:46 12,3 C 11,7 C 10,6 C 100 % 1008,5 hPa 0,0 l/m 0 min 0 min 0 W/m 16,1 km/h (3 Bft) 97,87 %
29.12.2021 21:48 12,3 C 11,7 C 10,6 C 100 % 1008,4 hPa 0,0 l/m 0 min 0 min 0 W/m 16,1 km/h (3 Bft) 97,87 %
29.12.2021 21:50 12,3 C 11,7 C 10,6 C 100 % 1008,4 hPa 0,0 l/m 0 min 0 min 0 W/m 16,1 km/h (3 Bft) 97,87 %
29.12.2021 21:52 12,3 C 11,7 C 10,6 C 100 % 1008,4 hPa 0,0 l/m 0 min 0 min 0 W/m 12,9 km/h (3 Bft) 93,48 %
29.12.2021 21:54 12,3 C 11,7 C 10,6 C 100 % 1008,5 hPa 0,0 l/m 0 min 0 min 0 W/m 19,3 km/h (3 Bft) 97,87 %
29.12.2021 21:56 12,3 C 11,7 C 10,6 C 100 % 1008,6 hPa 0,0 l/m 0 min 0 min 0 W/m 22,5 km/h (4 Bft) 97,87 %
29.12.2021 21:58 12,3 C 11,7 C 10,6 C 100 % 1008,6 hPa 0,0 l/m 0 min 0 min 0 W/m 12,9 km/h (3 Bft) 97,87 %
29.12.2021 22:00 12,3 C 11,7 C 10,6 C 100 % 1008,7 hPa 0,0 l/m 0 min 0 min 0 W/m 19,3 km/h (3 Bft) 97,87 %
29.12.2021 22:02 12,3 C 11,7 C 10,6 C 100 % 1008,7 hPa 0,0 l/m 0 min 0 min 0 W/m 19,3 km/h (3 Bft) 95,74 %
29.12.2021 22:04 12,3 C 11,7 C 10,6 C 100 % 1008,8 hPa 0,0 l/m 0 min 0 min 0 W/m 16,1 km/h (3 Bft) 97,87 %
29.12.2021 22:06 12,3 C 11,7 C 10,6 C 100 % 1008,8 hPa 0,0 l/m 0 min 0 min 0 W/m 22,5 km/h (4 Bft) 95,74 %
29.12.2021 22:08 12,3 C 11,7 C 10,6 C 100 % 1008,8 hPa 0,0 l/m 0 min 0 min 0 W/m 12,9 km/h (3 Bft) 97,87 %
29.12.2021 22:10 12,3 C 11,7 C 10,6 C 100 % 1008,9 hPa 0,0 l/m 0 min 0 min 0 W/m 12,9 km/h (3 Bft) 95,65 %
29.12.2021 22:12 12,3 C 11,7 C 10,6 C 100 % 1009,0 hPa 0,0 l/m 0 min 0 min 0 W/m 16,1 km/h (3 Bft) 97,87 %
29.12.2021 22:14 12,3 C 11,7 C 10,6 C 100 % 1009,0 hPa 0,0 l/m 0 min 0 min 0 W/m 22,5 km/h (4 Bft) 97,87 %
29.12.2021 22:16 12,3 C 11,7 C 10,6 C 100 % 1009,1 hPa 0,0 l/m 0 min 0 min 0 W/m 19,3 km/h (3 Bft) 97,87 %
29.12.2021 22:18 12,3 C 11,7 C 10,6 C 100 % 1009,1 hPa 0,0 l/m 0 min 0 min 0 W/m 19,3 km/h (3 Bft) 97,87 %
29.12.2021 22:20 12,3 C 11,7 C 10,6 C 100 % 1009,2 hPa 0,0 l/m 0 min 0 min 0 W/m 16,1 km/h (3 Bft) 97,87 %
29.12.2021 22:22 12,3 C 11,7 C 10,6 C 100 % 1009,2 hPa 0,0 l/m 0 min 0 min 0 W/m 16,1 km/h (3 Bft) 97,83 %
29.12.2021 22:24 12,3 C 11,7 C 10,6 C 100 % 1009,2 hPa 0,0 l/m 0 min 0 min 0 W/m 12,9 km/h (3 Bft) 97,87 %
29.12.2021 22:26 12,3 C 11,7 C 10,6 C 100 % 1009,3 hPa 0,0 l/m 0 min 0 min 0 W/m 16,1 km/h (3 Bft) 97,87 %
29.12.2021 22:28 12,3 C 11,7 C 10,6 C 100 % 1009,3 hPa 0,0 l/m 0 min 0 min 0 W/m 16,1 km/h (3 Bft) 97,87 %
29.12.2021 22:30 12,3 C 11,7 C 10,6 C 100 % 1009,3 hPa 0,0 l/m 0 min 0 min 0 W/m 12,9 km/h (3 Bft) 100,00 %
29.12.2021 22:32 12,3 C 11,7 C 10,6 C 99 % 1009,3 hPa 0,0 l/m 0 min 0 min 0 W/m 29,0 km/h (5 Bft) 97,87 %
29.12.2021 22:34 12,3 C 11,7 C 10,6 C 100 % 1009,3 hPa 0,0 l/m 0 min 0 min 0 W/m 12,9 km/h (3 Bft) 95,65 %
29.12.2021 22:36 12,3 C 11,7 C 10,6 C 99 % 1009,5 hPa 0,0 l/m 0 min 0 min 0 W/m 12,9 km/h (3 Bft) 97,87 %
29.12.2021 22:38 12,3 C 11,7 C 10,6 C 99 % 1009,5 hPa 0,0 l/m 0 min 0 min 0 W/m 16,1 km/h (3 Bft) 97,87 %
29.12.2021 22:40 12,3 C 11,7 C 10,6 C 99 % 1009,6 hPa 0,0 l/m 0 min 0 min 0 W/m 16,1 km/h (3 Bft) 97,87 %
29.12.2021 22:42 12,3 C 11,7 C 10,6 C 99 % 1009,7 hPa 0,0 l/m 0 min 0 min 0 W/m 16,1 km/h (3 Bft) 95,74 %
29.12.2021 22:44 12,3 C 11,7 C 10,6 C 99 % 1009,8 hPa 0,0 l/m 0 min 0 min 0 W/m 16,1 km/h (3 Bft) 97,87 %
29.12.2021 22:46 12,4 C 11,7 C 10,6 C 99 % 1009,9 hPa 0,0 l/m 0 min 0 min 0 W/m 16,1 km/h (3 Bft) 97,83 %
29.12.2021 22:48 12,4 C 11,7 C 10,6 C 99 % 1010,0 hPa 0,0 l/m 0 min 0 min 0 W/m 22,5 km/h (4 Bft) 95,74 %
29.12.2021 22:50 12,4 C 11,7 C 10,6 C 99 % 1010,0 hPa 0,0 l/m 0 min 0 min 0 W/m 19,3 km/h (3 Bft) 97,87 %
29.12.2021 22:52 12,4 C 11,7 C 10,6 C 99 % 1010,1 hPa 0,0 l/m 0 min 0 min 0 W/m 16,1 km/h (3 Bft) 97,87 %
29.12.2021 22:54 12,4 C 11,7 C 10,6 C 99 % 1010,1 hPa 0,0 l/m 0 min 0 min 0 W/m 16,1 km/h (3 Bft) 97,87 %
29.12.2021 22:56 12,4 C 11,7 C 10,6 C 99 % 1010,1 hPa 0,0 l/m 0 min 0 min 0 W/m 9,7 km/h (2 Bft) 97,87 %
29.12.2021 22:58 12,4 C 11,7 C 10,6 C 99 % 1010,1 hPa 0,0 l/m 0 min 0 min 0 W/m 25,7 km/h (4 Bft) 97,83 %
29.12.2021 23:00 12,4 C 11,7 C 10,6 C 99 % 1010,0 hPa 0,0 l/m 0 min 0 min 0 W/m 12,9 km/h (3 Bft) 97,87 %
29.12.2021 23:02 12,3 C 11,7 C 10,6 C 98 % 1010,1 hPa 0,0 l/m 0 min 0 min 0 W/m 16,1 km/h (3 Bft) 97,87 %
29.12.2021 23:04 12,3 C 11,7 C 10,6 C 98 % 1010,2 hPa 0,0 l/m 0 min 0 min 0 W/m 16,1 km/h (3 Bft) 93,62 %
29.12.2021 23:06 12,3 C 11,7 C 10,6 C 98 % 1010,2 hPa 0,0 l/m 0 min 0 min 0 W/m 19,3 km/h (3 Bft) 95,74 %
29.12.2021 23:08 12,3 C 11,7 C 10,6 C 98 % 1010,2 hPa 0,0 l/m 0 min 0 min 0 W/m 16,1 km/h (3 Bft) 97,87 %
29.12.2021 23:10 12,3 C 11,7 C 10,6 C 98 % 1010,2 hPa 0,0 l/m 0 min 0 min 0 W/m 12,9 km/h (3 Bft) 97,83 %
29.12.2021 23:12 12,3 C 11,7 C 10,6 C 98 % 1010,2 hPa 0,0 l/m 0 min 0 min 0 W/m 16,1 km/h (3 Bft) 97,87 %
29.12.2021 23:14 12,3 C 11,7 C 10,6 C 98 % 1010,2 hPa 0,0 l/m 0 min 0 min 0 W/m 12,9 km/h (3 Bft) 97,87 %
29.12.2021 23:16 12,3 C 11,7 C 10,6 C 98 % 1010,4 hPa 0,0 l/m 0 min 0 min 0 W/m 16,1 km/h (3 Bft) 97,87 %
29.12.2021 23:18 12,2 C 11,7 C 10,6 C 98 % 1010,4 hPa 0,0 l/m 0 min 0 min 0 W/m 12,9 km/h (3 Bft) 97,87 %
29.12.2021 23:20 12,2 C 11,7 C 10,6 C 98 % 1010,5 hPa 0,0 l/m 0 min 0 min 0 W/m 12,9 km/h (3 Bft) 97,87 %
29.12.2021 23:22 12,2 C 11,7 C 10,6 C 98 % 1010,5 hPa 0,0 l/m 0 min 0 min 0 W/m 22,5 km/h (4 Bft) 97,83 %
29.12.2021 23:24 12,2 C 11,7 C 10,6 C 98 % 1010,4 hPa 0,0 l/m 0 min 0 min 0 W/m 16,1 km/h (3 Bft) 97,87 %
29.12.2021 23:26 12,2 C 11,7 C 10,6 C 98 % 1010,4 hPa 0,0 l/m 0 min 0 min 0 W/m 16,1 km/h (3 Bft) 97,87 %
29.12.2021 23:28 12,2 C 11,7 C 10,6 C 98 % 1010,5 hPa 0,0 l/m 0 min 0 min 0 W/m 16,1 km/h (3 Bft) 95,74 %
29.12.2021 23:30 12,2 C 11,7 C 10,6 C 97 % 1010,5 hPa 0,0 l/m 0 min 0 min 0 W/m 16,1 km/h (3 Bft) 97,87 %
29.12.2021 23:32 12,2 C 11,7 C 10,6 C 97 % 1010,6 hPa 0,0 l/m 0 min 0 min 0 W/m 22,5 km/h (4 Bft) 95,74 %
29.12.2021 23:34 12,2 C 11,7 C 10,6 C 97 % 1010,6 hPa 0,0 l/m 0 min 0 min 0 W/m 9,7 km/h (2 Bft) 97,83 %
29.12.2021 23:36 12,2 C 11,1 C 10,6 C 97 % 1010,6 hPa 0,0 l/m 0 min 0 min 0 W/m 12,9 km/h (3 Bft) 97,87 %
29.12.2021 23:38 12,1 C 11,1 C 10,0 C 97 % 1010,7 hPa 0,0 l/m 0 min 0 min 0 W/m 6,4 km/h (2 Bft) 95,74 %
29.12.2021 23:40 12,1 C 11,1 C 10,0 C 97 % 1010,8 hPa 0,0 l/m 0 min 0 min 0 W/m 12,9 km/h (3 Bft) 97,87 %
29.12.2021 23:42 12,1 C 11,1 C 10,6 C 97 % 1010,8 hPa 0,0 l/m 0 min 0 min 0 W/m 12,9 km/h (3 Bft) 97,87 %
29.12.2021 23:44 12,1 C 11,1 C 10,0 C 97 % 1010,9 hPa 0,0 l/m 0 min 0 min 0 W/m 9,7 km/h (2 Bft) 95,74 %
29.12.2021 23:46 12,0 C 11,1 C 10,0 C 97 % 1010,9 hPa 0,0 l/m 0 min 0 min 0 W/m 16,1 km/h (3 Bft) 93,48 %
29.12.2021 23:48 12,0 C 11,1 C 10,0 C 97 % 1011,0 hPa 0,0 l/m 0 min 0 min 0 W/m 22,5 km/h (4 Bft) 97,87 %
29.12.2021 23:50 12,0 C 11,1 C 10,0 C 97 % 1011,1 hPa 0,0 l/m 0 min 0 min 0 W/m 16,1 km/h (3 Bft) 93,62 %
29.12.2021 23:52 12,0 C 11,1 C 10,0 C 97 % 1011,0 hPa 0,0 l/m 0 min 0 min 0 W/m 16,1 km/h (3 Bft) 97,87 %
29.12.2021 23:54 12,0 C 11,1 C 10,0 C 97 % 1010,9 hPa 0,0 l/m 0 min 0 min 0 W/m 12,9 km/h (3 Bft) 93,62 %
29.12.2021 23:56 12,0 C 11,1 C 10,0 C 97 % 1010,9 hPa 0,0 l/m 0 min 0 min 0 W/m 12,9 km/h (3 Bft) 97,83 %
29.12.2021 23:58 12,0 C 11,1 C 10,0 C 96 % 1011,0 hPa 0,0 l/m 0 min 0 min 0 W/m 9,7 km/h (2 Bft) 100,00 %
_ Min-Zeit 08:42 06:54 00:00 13:42 00:00 - - - - 06:24 18:24
Minimum _ 8,1 C 7,2 C 7,2 C 92 % 999,3 hPa - - - - 3,2 km/h (1 Bft) 55,56 %
_ Max-Zeit 22:46 20:58 20:30 03:26 23:50 00:50 12:08 00:18 12:00 00:10 01:22
Maximum _ 12,4 C 11,7 C 10,6 C 100 % 1011,1 hPa 0,2 l/m 4 min 2 min 190 W/m 29,0 km/h
O (5 Bft)
100,00 %
Durchschnitt _ 9,4 C 8,7 C 8,0 C 98 % 1006,0 hPa #7,0 l/m #20 min. #3:12 h 58 W/m 13,5 km/h (3 Bft) 97,35 %
© 2021 W. Hausmann